FW6434 Weather Reports


time (UTC)temp
C
wind
direction
speed
KPH
gust
KPH
rain 1hr
cm
rain 24hr
cm
rain mn
cm
humidity
%
barometer
mb
20260902065419 20 201 0.0 1.6 0.00 0.00 0.00 73 1020.5
20260902065403 20 214 0.0 1.6 0.00 0.00 0.00 73 1020.4
20260902065350 20 201 0.0 1.6 0.00 0.00 0.00 73 1020.4
20260902065339 20 203 0.0 1.6 0.00 0.00 0.00 72 1020.6
20260902065322 20 200 0.0 1.6 0.00 0.00 0.00 72 1020.4
20260902065307 20 202 0.0 1.6 0.00 0.00 0.00 72 1020.3
20260902065250 20 204 0.0 1.6 0.00 0.00 0.00 73 1020.3
20260902065223 20 199 0.0 1.6 0.00 0.00 0.00 73 1020.5
20260902064950 20 201 0.0 1.6 0.00 0.00 0.00 74 1020.4
20260902064934 20 200 0.0 1.6 0.00 0.00 0.00 74 1020.6
20260902064442 19 197 0.0 1.6 0.00 0.00 0.00 75 1020.3
20260902064431 19 204 1.6 1.6 0.00 0.00 0.00 75 1020.6
20260902064416 19 194 0.0 0.0 0.00 0.00 0.00 75 1020.4
20260902064140 19 199 0.0 0.0 0.00 0.00 0.00 76 1020.3
20260902064111 18 202 0.0 0.0 0.00 0.00 0.00 77 1020.4
20260902064059 18 197 0.0 0.0 0.00 0.00 0.00 77 1020.4
20260902063823 18 230 0.0 0.0 0.00 0.00 0.00 77 1020.5
20260902063807 18 197 0.0 0.0 0.00 0.00 0.00 77 1020.5
20260902063320 18 192 0.0 0.0 0.00 0.00 0.00 78 1020.5
20260902062959 18 196 0.0 0.0 0.00 0.00 0.00 77 1020.6
20260902062901 18 194 0.0 0.0 0.00 0.00 0.00 78 1020.5
20260902062759 18 197 0.0 0.0 0.00 0.00 0.00 77 1020.4
20260902062743 18 196 0.0 0.0 0.00 0.00 0.00 77 1020.4
20260902062700 18 181 0.0 0.0 0.00 0.00 0.00 77 1020.5
20260902062559 18 199 0.0 0.0 0.00 0.00 0.00 77 1020.4
20260902062500 18 194 0.0 0.0 0.00 0.00 0.00 76 1020.4
20260902062359 18 192 0.0 0.0 0.00 0.00 0.00 76 1020.4
20260902062259 19 192 0.0 0.0 0.00 0.00 0.00 77 1020.4
20260902062159 19 191 0.0 0.0 0.00 0.00 0.00 75 1020.1
20260902062059 19 193 0.0 0.0 0.00 0.00 0.00 75 1020.3
20260902061959 19 192 0.0 0.0 0.00 0.00 0.00 76 1020.4
20260902061859 19 192 0.0 0.0 0.00 0.00 0.00 76 1020.4
20260902061743 18 192 0.0 0.0 0.00 0.00 0.00 77 1020.0
20260902061711 18 192 0.0 0.0 0.00 0.00 0.00 77 1020.3
20260902061656 18 192 0.0 0.0 0.00 0.00 0.00 77 1020.3
20260902061640 18 192 0.0 0.0 0.00 0.00 0.00 77 1020.3
20260902061625 18 192 0.0 0.0 0.00 0.00 0.00 78 1020.3
20260902061358 18 192 0.0 0.0 0.00 0.00 0.00 78 1020.3
20260902061342 18 193 0.0 0.0 0.00 0.00 0.00 77 1020.3
20260902061327 18 193 0.0 0.0 0.00 0.00 0.00 77 1020.2
20260902060747 18 193 0.0 0.0 0.00 0.00 0.00 78 1020.2
20260902060722 18 193 0.0 0.0 0.00 0.00 0.00 78 1020.4
20260902060706 18 192 0.0 0.0 0.00 0.00 0.00 78 1020.2
20260902060349 18 114 0.0 0.0 0.00 0.00 0.00 79 1020.2
20260902060247 17 193 0.0 0.0 0.00 0.00 0.00 80 1020.1
20260902060148 17 192 0.0 0.0 0.00 0.00 0.00 79 1020.4
20260902060046 17 109 0.0 0.0 0.00 0.00 0.00 80 1020.2
20260902055949 17 195 0.0 0.0 0.00 0.00 0.00 80 1020.2
20260902055848 17 203 0.0 0.0 0.00 0.00 0.00 80 1020.3
20260902055748 17 196 0.0 0.0 0.00 0.00 0.00 81 1020.2
20260902055647 17 195 0.0 0.0 0.00 0.00 0.00 81 1020.1
20260902055547 17 195 0.0 0.0 0.00 0.00 0.00 82 1020.1
20260902055447 17 196 0.0 0.0 0.00 0.00 0.00 82 1020.0
20260902055348 17 199 0.0 0.0 0.00 0.00 0.00 83 1020.2
20260902055326 15 194 0.0 0.0 0.00 0.00 0.00 91 1020.2
20260902055311 16 191 0.0 0.0 0.00 0.00 0.00 84 1020.2
20260902055255 16 194 0.0 0.0 0.00 0.00 0.00 84 1020.1
20260902055240 16 194 0.0 0.0 0.00 0.00 0.00 85 1020.0
20260902055224 16 194 0.0 0.0 0.00 0.00 0.00 86 1020.5
20260902054942 16 194 0.0 0.0 0.00 0.00 0.00 87 1020.1
20260902054925 15 194 0.0 0.0 0.00 0.00 0.00 88 1020.1
20260902054909 15 194 0.0 0.0 0.00 0.00 0.00 89 1020.1
20260902054854 15 194 0.0 0.0 0.00 0.00 0.00 90 1020.2
20260902054838 15 194 0.0 0.0 0.00 0.00 0.00 90 1020.4
20260902054821 15 194 0.0 0.0 0.00 0.00 0.00 91 1020.2
20260902054335 15 194 0.0 0.0 0.00 0.00 0.00 92 1020.1
20260902053850 14 193 0.0 0.0 0.00 0.00 0.00 93 1020.2
20260902053828 14 193 0.0 0.0 0.00 0.00 0.00 93 1020.1
20260902053811 14 193 0.0 0.0 0.00 0.00 0.00 94 1020.3
20260902053547 14 193 0.0 0.0 0.00 0.00 0.00 94 1020.3
20260902053531 14 192 0.0 0.0 0.00 0.00 0.00 94 1020.2
20260902053514 13 193 0.0 0.0 0.00 0.00 0.00 95 1020.5
20260902053457 13 192 0.0 0.0 0.00 0.00 0.00 95 1020.2
20260902053148 13 192 0.0 0.0 0.00 0.00 0.00 95 1020.4
20260902053047 13 192 0.0 0.0 0.00 0.00 0.00 96 1020.2
20260902052947 13 193 0.0 0.0 0.00 0.00 0.00 96 1020.1
20260902052847 13 192 0.0 0.0 0.00 0.00 0.00 96 1020.1
20260902052748 13 192 0.0 0.0 0.00 0.00 0.00 96 1020.2
20260902052723 13 192 0.0 0.0 0.00 0.00 0.00 97 1020.3
20260902052707 13 193 0.0 0.0 0.00 0.00 0.00 97 1020.4
20260902052346 13 193 0.0 0.0 0.00 0.00 0.00 97 1020.0
20260902052247 13 193 0.0 0.0 0.00 0.00 0.00 97 1020.1
20260902052148 13 193 0.0 0.0 0.00 0.00 0.00 98 1020.1
20260902052048 12 193 0.0 0.0 0.00 0.00 0.00 98 1020.1
20260902051947 12 193 0.0 0.0 0.00 0.00 0.00 98 1020.2
20260902051849 12 194 0.0 0.0 0.00 0.00 0.00 98 1020.2
20260902051749 12 194 0.0 0.0 0.00 0.00 0.00 98 1020.3
20260902051647 12 194 0.0 0.0 0.00 0.00 0.00 98 1020.1
20260902051619 12 194 0.0 0.0 0.00 0.00 0.00 98 1020.2
20260902051603 12 194 0.0 0.0 0.00 0.00 0.00 98 1020.4
20260902051547 12 194 0.0 0.0 0.00 0.00 0.00 98 1020.1
20260902051526 12 194 0.0 0.0 0.00 0.00 0.00 98 1020.1
20260902051247 12 194 0.0 0.0 0.00 0.00 0.00 98 1020.0
20260902051231 12 194 0.0 0.0 0.00 0.00 0.00 98 1020.1
20260902051217 12 194 0.0 0.0 0.00 0.00 0.00 98 1020.2
20260902050950 12 194 0.0 0.0 0.00 0.00 0.00 98 1020.3
20260902050919 12 194 0.0 0.0 0.00 0.00 0.00 98 1020.1
20260902050904 12 194 0.0 0.0 0.00 0.00 0.00 98 1020.0
20260902050848 12 194 0.0 0.0 0.00 0.00 0.00 98 1020.1
20260902050604 12 194 0.0 0.0 0.00 0.00 0.00 99 1020.1
20260902050107 12 194 0.0 0.0 0.00 0.00 0.00 99 1020.0
20260902045746 12 194 0.0 0.0 0.00 0.00 0.00 99 1020.1
20260902045721 12 194 0.0 0.0 0.00 0.00 0.00 99 1020.1
20260902045705 12 194 0.0 0.0 0.00 0.00 0.00 99 1020.1
20260902045347 12 194 0.0 0.0 0.00 0.00 0.00 99 1020.0
20260902045247 11 194 0.0 0.0 0.00 0.00 0.00 99 1020.2
20260902045222 11 194 0.0 0.0 0.00 0.00 0.00 99 1020.1
20260902045207 12 194 0.0 0.0 0.00 0.00 0.00 99 1020.2
20260902044932 12 195 0.0 0.0 0.00 0.00 0.00 100 1019.9
20260902044926 11 189 0.0 0.0 0.00 0.00 0.00 100 1020.0
20260902044918 11 194 0.0 0.0 0.00 0.00 0.00 100 1020.2
20260902044856 11 195 0.0 0.0 0.00 0.00 0.00 99 1020.2
20260902044839 12 195 0.0 0.0 0.00 0.00 0.00 100 1020.2
20260902044823 12 195 0.0 0.0 0.00 0.00 0.00 100 1020.0
20260902044808 12 195 0.0 0.0 0.00 0.00 0.00 100 1020.0
20260902044531 12 195 0.0 0.0 0.00 0.00 0.00 100 1019.9
20260902044305 12 195 0.0 0.0 0.00 0.00 0.00 100 1020.3
20260902044250 12 170 0.0 0.0 0.00 0.00 0.00 100 1020.6
20260902044234 12 189 0.0 0.0 0.00 0.00 0.00 100 1020.2
20260902044218 11 189 0.0 0.0 0.00 0.00 0.00 100 1020.1
20260902043646 11 192 0.0 0.0 0.00 0.00 0.00 100 1020.1
20260902043546 11 194 0.0 0.0 0.00 0.00 0.00 100 1020.2
20260902043446 11 194 0.0 0.0 0.00 0.00 0.00 100 1020.0
20260902043347 11 196 0.0 0.0 0.00 0.00 0.00 100 1020.0
20260902043247 11 196 0.0 0.0 0.00 0.00 0.00 100 1020.0
20260902043146 11 196 0.0 0.0 0.00 0.00 0.00 100 1020.1
20260902043124 11 196 0.0 0.0 0.00 0.00 0.00 100 1020.3
20260902043109 11 198 0.0 0.0 0.00 0.00 0.00 100 1020.1
20260902043053 11 198 0.0 0.0 0.00 0.00 0.00 100 1020.2
20260902042826 11 202 0.0 0.0 0.00 0.00 0.00 100 1020.1
20260902042808 11 259 0.0 0.0 0.00 0.00 0.00 100 1020.1
20260902042446 11 266 0.0 0.0 0.00 0.00 0.00 100 1019.8
20260902042428 11 273 0.0 0.0 0.00 0.00 0.00 100 1020.1
20260902042406 10 281 0.0 0.0 0.00 0.00 0.00 100 1020.2
20260902042047 10 195 0.0 0.0 0.00 0.00 0.00 100 1020.0
20260902041946 10 195 0.0 0.0 0.00 0.00 0.00 100 1020.0
20260902041846 10 195 0.0 0.0 0.00 0.00 0.00 100 1020.0
20260902041747 10 196 0.0 0.0 0.00 0.00 0.00 100 1020.0
20260902041646 10 196 0.0 0.0 0.00 0.00 0.00 100 1020.0
20260902041545 10 196 0.0 0.0 0.00 0.00 0.00 100 1019.9
20260902041446 10 196 0.0 0.0 0.00 0.00 0.00 100 1020.1
20260902041346 10 196 0.0 0.0 0.00 0.00 0.00 100 1019.9
20260902041246 10 196 0.0 0.0 0.00 0.00 0.00 100 1020.2
20260902041146 10 196 0.0 0.0 0.00 0.00 0.00 100 1020.1
20260902041046 10 196 0.0 0.0 0.00 0.00 0.00 100 1019.9
20260902040947 10 196 0.0 0.0 0.00 0.00 0.00 100 1019.9
20260902040930 10 196 0.0 0.0 0.00 0.00 0.00 100 1020.1
20260902040908 10 196 0.0 0.0 0.00 0.00 0.00 100 1020.1
20260902040546 10 196 0.0 0.0 0.00 0.00 0.00 100 1020.1
20260902040512 10 196 0.0 0.0 0.00 0.00 0.00 100 1020.0
20260902040456 10 196 0.0 0.0 0.00 0.00 0.00 100 1020.0
20260902040434 10 196 0.0 0.0 0.00 0.00 0.00 100 1019.8
20260902040418 10 196 0.0 0.0 0.00 0.00 0.00 100 1020.2
20260902040144 10 196 0.0 0.0 0.00 0.00 0.00 100 1020.0
20260902040128 10 196 0.0 0.0 0.00 0.00 0.00 100 1019.8
20260902040106 10 196 0.0 0.0 0.00 0.00 0.00 100 1020.2
20260902035556 10 196 0.0 0.0 0.00 0.00 0.00 100 1020.1
20260902035541 10 196 0.0 0.0 0.00 0.00 0.00 100 1020.0
20260902035315 10 196 0.0 0.0 0.00 0.00 0.00 100 1020.0
20260902035300 10 196 0.0 0.0 0.00 0.00 0.00 100 1019.9
20260902035245 10 196 0.0 0.0 0.00 0.00 0.00 100 1019.8
20260902035228 10 196 0.0 0.0 0.00 0.00 0.00 100 1020.0
20260902035213 10 196 0.0 0.0 0.00 0.00 0.00 100 1020.0
20260902035143 10 196 0.0 0.0 0.00 0.00 0.00 100 1019.9
20260902034912 10 196 0.0 0.0 0.00 0.00 0.00 100 1019.9
20260902034857 10 196 0.0 0.0 0.00 0.00 0.00 100 1019.6
20260902034842 11 196 0.0 0.0 0.00 0.00 0.00 100 1019.9
20260902034814 11 196 0.0 0.0 0.00 0.00 0.00 100 1019.8
20260902034531 11 196 0.0 0.0 0.00 0.00 0.00 100 1020.0
20260902033817 10 196 0.0 0.0 0.00 0.00 0.00 100 1019.9
20260902033806 10 196 0.0 0.0 0.00 0.00 0.00 100 1020.0
20260902033447 10 196 0.0 0.0 0.00 0.00 0.00 100 1019.9
20260902033429 11 196 0.0 0.0 0.00 0.00 0.00 100 1020.0
20260902033401 11 196 0.0 0.0 0.00 0.00 0.00 100 1019.9
20260902033046 11 196 0.0 0.0 0.00 0.00 0.00 100 1019.8
20260902033024 11 196 0.0 0.0 0.00 0.00 0.00 100 1019.9
20260902033008 11 196 0.0 0.0 0.00 0.00 0.00 100 1020.0
20260902032937 11 196 0.0 0.0 0.00 0.00 0.00 100 1019.7
20260902032707 11 196 0.0 0.0 0.00 0.00 0.00 100 1019.7
20260902032347 11 196 0.0 0.0 0.00 0.00 0.00 100 1019.9
20260902032233 11 196 0.0 0.0 0.00 0.00 0.00 100 1019.8
20260902032140 11 196 0.0 0.0 0.00 0.00 0.00 100 1019.8
20260902032051 11 196 0.0 0.0 0.00 0.00 0.00 100 1020.0
20260902032035 11 196 0.0 0.0 0.00 0.00 0.00 100 1019.7
20260902032020 11 196 0.0 0.0 0.00 0.00 0.00 100 1019.9
20260902031753 11 196 0.0 0.0 0.00 0.00 0.00 100 1019.8
20260902031738 11 196 0.0 0.0 0.00 0.00 0.00 100 1020.0
20260902031722 11 196 0.0 0.0 0.00 0.00 0.00 100 1019.7
20260902031707 11 196 0.0 0.0 0.00 0.00 0.00 100 1019.9
20260902031651 11 196 0.0 0.0 0.00 0.00 0.00 100 1019.8
20260902031419 11 196 0.0 0.0 0.00 0.00 0.00 100 1019.9
20260902031201 11 196 0.0 0.0 0.00 0.00 0.00 100 1019.9
20260902031155 11 196 0.0 0.0 0.00 0.00 0.00 100 1019.7
20260902031139 11 196 0.0 0.0 0.00 0.00 0.00 100 1019.6
20260902031123 11 196 0.0 0.0 0.00 0.00 0.00 100 1019.7
20260902030859 11 196 0.0 0.0 0.00 0.00 0.00 100 1019.8
20260902030828 11 196 0.0 0.0 0.00 0.00 0.00 100 1019.9
20260902030818 11 196 0.0 0.0 0.00 0.00 0.00 100 1019.8
20260902030802 11 196 0.0 0.0 0.00 0.00 0.00 100 1019.7
20260902030746 11 196 0.0 0.0 0.00 0.00 0.00 100 1020.0
20260902030730 11 196 0.0 0.0 0.00 0.00 0.00 100 1019.8
20260902030459 11 196 0.0 0.0 0.00 0.00 0.00 100 1019.7
20260902030229 11 196 0.0 0.0 0.00 0.00 0.00 100 1020.0
20260902030213 11 196 0.0 0.0 0.00 0.00 0.00 100 1019.9
20260902030157 11 196 0.0 0.0 0.00 0.00 0.00 100 1019.8
20260902030141 11 196 0.0 0.0 0.00 0.00 0.00 100 1019.9
20260902025652 11 196 0.0 0.0 0.00 0.00 0.00 100 1019.9
20260902025636 11 196 0.0 0.0 0.00 0.00 0.00 100 1019.8
20260902025620 11 196 0.0 0.0 0.00 0.00 0.00 100 1020.0
20260902025605 11 196 0.0 0.0 0.00 0.00 0.00 100 1020.0
20260902025033 11 196 0.0 0.0 0.00 0.00 0.00 100 1019.5
20260902024934 11 196 0.0 0.0 0.00 0.00 0.00 100 1019.7
20260902024834 11 196 0.0 0.0 0.00 0.00 0.00 100 1019.8
20260902024757 11 196 0.0 0.0 0.00 0.00 0.00 100 1020.0
20260902024747 11 196 0.0 0.0 0.00 0.00 0.00 100 1019.7
20260902024730 11 196 0.0 0.0 0.00 0.00 0.00 100 1019.8
20260902024715 11 196 0.0 0.0 0.00 0.00 0.00 100 1019.7
20260902024426 11 196 0.0 0.0 0.00 0.00 0.00 100 1019.7
20260902024416 11 196 0.0 0.0 0.00 0.00 0.00 100 1019.9
20260902024359 11 196 0.0 0.0 0.00 0.00 0.00 100 1019.8
20260902024124 11 196 0.0 0.0 0.00 0.00 0.00 100 1019.9
20260902023850 11 196 0.0 0.0 0.00 0.00 0.00 100 1019.7
20260902023613 11 196 0.0 0.0 0.00 0.00 0.00 100 1019.7
20260902023557 11 196 0.0 0.0 0.00 0.00 0.00 100 1019.8
20260902023214 11 196 0.0 0.0 0.00 0.00 0.00 100 1019.9
20260902023129 11 195 0.0 0.0 0.00 0.00 0.00 100 1020.0
20260902023029 11 196 0.0 0.0 0.00 0.00 0.00 100 1019.7
20260902022933 11 196 0.0 0.0 0.00 0.00 0.00 100 1019.8
20260902022929 11 196 0.0 0.0 0.00 0.00 0.00 100 1020.0
20260902022919 11 196 0.0 0.0 0.00 0.00 0.00 100 1019.8
20260902022908 11 196 0.0 0.0 0.00 0.00 0.00 100 1020.1
20260902022837 11 196 0.0 0.0 0.00 0.00 0.00 100 1019.9
20260902022813 11 196 0.0 0.0 0.00 0.00 0.00 100 1020.0
20260902022549 11 196 0.0 0.0 0.00 0.00 0.00 100 1020.0
20260902022534 11 196 0.0 0.0 0.00 0.00 0.00 100 1019.9
20260902022518 11 196 0.0 0.0 0.00 0.00 0.00 100 1020.2
20260902022502 11 196 0.0 0.0 0.00 0.00 0.00 100 1019.8
20260902022236 10 196 0.0 0.0 0.00 0.00 0.00 100 1020.0
20260902022221 10 196 0.0 0.0 0.00 0.00 0.00 100 1019.9
20260902021945 11 196 0.0 0.0 0.00 0.00 0.00 100 1020.1
20260902021927 11 196 0.0 0.0 0.00 0.00 0.00 100 1019.8
20260902021617 11 196 0.0 0.0 0.00 0.00 0.00 100 1019.8
20260902021517 11 196 0.0 0.0 0.00 0.00 0.00 100 1019.9
20260902021419 11 196 0.0 0.0 0.00 0.00 0.00 100 1020.0
20260902021327 11 196 0.0 0.0 0.00 0.00 0.00 100 1020.0
20260902021321 11 196 0.0 0.0 0.00 0.00 0.00 100 1020.0
20260902021259 11 196 0.0 0.0 0.00 0.00 0.00 100 1020.0
20260902021242 11 196 0.0 0.0 0.00 0.00 0.00 100 1019.7
20260902021010 11 196 0.0 0.0 0.00 0.00 0.00 100 1020.2
20260902021001 11 196 0.0 0.0 0.00 0.00 0.00 100 1020.1
20260902020945 11 196 0.0 0.0 0.00 0.00 0.00 100 1020.0
20260902020926 11 196 0.0 0.0 0.00 0.00 0.00 100 1020.2
20260902020701 11 196 0.0 0.0 0.00 0.00 0.00 100 1019.9
20260902020646 11 196 0.0 0.0 0.00 0.00 0.00 100 1019.9
20260902020409 11 196 0.0 0.0 0.00 0.00 0.00 100 1019.9
20260902020348 11 196 0.0 0.0 0.00 0.00 0.00 100 1020.0
20260902020317 11 196 0.0 0.0 0.00 0.00 0.00 100 1020.0
20260902020303 11 196 0.0 0.0 0.00 0.00 0.00 100 1020.0
20260902020028 11 196 0.0 0.0 0.00 0.00 0.00 100 1020.1
20260902015758 11 196 0.0 0.0 0.00 0.00 0.00 100 1020.0
20260902015742 11 196 0.0 0.0 0.00 0.00 0.00 100 1019.9
20260902015725 11 196 0.0 0.0 0.00 0.00 0.00 100 1020.0
20260902015500 11 196 0.0 0.0 0.00 0.00 0.00 100 1019.9
20260902015444 11 196 0.0 0.0 0.00 0.00 0.00 100 1020.0
20260902015426 11 196 0.0 0.0 0.00 0.00 0.00 100 1020.0
20260902015117 11 196 0.0 0.0 0.00 0.00 0.00 100 1019.9
20260902015017 11 196 0.0 0.0 0.00 0.00 0.00 100 1020.0
20260902014918 11 196 0.0 0.0 0.00 0.00 0.00 100 1020.0
20260902014818 11 196 0.0 0.0 0.00 0.00 0.00 100 1019.9
20260902014717 11 196 0.0 0.0 0.00 0.00 0.00 100 1020.0
20260902014617 11 196 0.0 0.0 0.00 0.00 0.00 100 1020.0
20260902014518 11 196 0.0 0.0 0.00 0.00 0.00 100 1020.1
20260902014417 11 196 0.0 0.0 0.00 0.00 0.00 100 1020.0
20260902014400 11 196 0.0 0.0 0.00 0.00 0.00 100 1020.0
20260902014338 11 196 0.0 0.0 0.00 0.00 0.00 100 1020.0
20260902014016 11 196 0.0 0.0 0.00 0.00 0.00 100 1019.9
20260902013917 11 196 0.0 0.0 0.00 0.00 0.00 100 1020.1
20260902013818 11 196 0.0 0.0 0.00 0.00 0.00 100 1020.2
20260902013717 11 196 0.0 0.0 0.00 0.00 0.00 100 1020.0
20260902013653 11 196 0.0 0.0 0.00 0.00 0.00 100 1020.2
20260902013638 11 196 0.0 0.0 0.00 0.00 0.00 100 1020.2
20260902013318 11 196 0.0 0.0 0.00 0.00 0.00 100 1020.0
20260902013230 11 196 0.0 0.0 0.00 0.00 0.00 100 1020.1
20260902013116 11 196 0.0 0.0 0.00 0.00 0.00 100 1020.1
20260902013019 11 196 0.0 0.0 0.00 0.00 0.00 100 1020.1
20260902013002 11 196 0.0 0.0 0.00 0.00 0.00 100 1020.2
20260902012946 11 196 0.0 0.0 0.00 0.00 0.00 100 1020.0
20260902012718 11 196 0.0 0.0 0.00 0.00 0.00 100 1020.3
20260902012618 11 196 0.0 0.0 0.00 0.00 0.00 100 1020.1
20260902012517 11 196 0.0 0.0 0.00 0.00 0.00 100 1020.2
20260902012417 11 196 0.0 0.0 0.00 0.00 0.00 100 1020.2
20260902012317 11 196 0.0 0.0 0.00 0.00 0.00 100 1020.0
20260902012218 11 196 0.0 0.0 0.00 0.00 0.00 100 1019.9
20260902012118 11 196 0.0 0.0 0.00 0.00 0.00 100 1020.0
20260902012057 11 196 0.0 0.0 0.00 0.00 0.00 100 1020.1
20260902012041 11 195 0.0 0.0 0.00 0.00 0.00 100 1020.0
20260902012025 11 195 0.0 0.0 0.00 0.00 0.00 100 1020.1
20260902012001 11 195 0.0 0.0 0.00 0.00 0.00 100 1020.0
20260902011945 11 195 0.0 0.0 0.00 0.00 0.00 100 1019.9
20260902011929 11 196 0.0 0.0 0.00 0.00 0.00 100 1020.0
20260902011914 11 196 0.0 0.0 0.00 0.00 0.00 100 1020.0
20260902011857 11 196 0.0 0.0 0.00 0.00 0.00 100 1019.9
20260902011630 11 196 0.0 0.0 0.00 0.00 0.00 100 1020.1
20260902010818 11 196 0.0 0.0 0.00 0.00 0.00 99 1019.9
20260902010717 11 196 0.0 0.0 0.00 0.00 0.00 99 1019.9
20260902010617 11 196 0.0 0.0 0.00 0.00 0.00 99 1020.0
20260902010517 11 196 0.0 0.0 0.00 0.00 0.00 99 1019.9
20260902010417 11 196 0.0 0.0 0.00 0.00 0.00 99 1020.0
20260902010350 11 196 0.0 0.0 0.00 0.00 0.00 99 1019.9
20260902010327 11 196 0.0 0.0 0.00 0.00 0.00 99 1019.9
20260902010310 11 196 0.0 0.0 0.00 0.00 0.00 99 1019.8
20260902010036 11 196 0.0 0.0 0.00 0.00 0.00 99 1019.8
20260902010020 11 196 0.0 0.0 0.00 0.00 0.00 99 1019.8
20260902005752 11 196 0.0 0.0 0.00 0.00 0.00 99 1020.0
20260902005738 11 196 0.0 0.0 0.00 0.00 0.00 99 1020.0
20260902005417 11 196 0.0 0.0 0.00 0.00 0.00 99 1019.9
20260902005316 11 196 0.0 0.0 0.00 0.00 0.00 99 1020.0
20260902005218 11 196 0.0 0.0 0.00 0.00 0.00 99 1019.9
20260902005153 11 196 0.0 0.0 0.00 0.00 0.00 99 1020.0
20260902005136 11 196 0.0 0.0 0.00 0.00 0.00 99 1020.1
20260902004818 11 196 0.0 0.0 0.00 0.00 0.00 99 1020.1
20260902004716 11 196 0.0 0.0 0.00 0.00 0.00 99 1019.8
20260902004358 11 196 0.0 0.0 0.00 0.00 0.00 99 1020.2
20260902004327 11 196 0.0 0.0 0.00 0.00 0.00 99 1019.9
20260902004317 11 196 0.0 0.0 0.00 0.00 0.00 99 1020.0
20260902003958 11 196 0.0 0.0 0.00 0.00 0.00 99 1020.1
20260902003858 11 196 0.0 0.0 0.00 0.00 0.00 99 1020.0
20260902003741 11 196 0.0 0.0 0.00 0.00 0.00 99 1019.9
20260902003656 11 196 0.0 0.0 0.00 0.00 0.00 99 1020.0
20260902003645 12 196 0.0 0.0 0.00 0.00 0.00 98 1020.0
20260902003637 11 196 0.0 0.0 0.00 0.00 0.00 98 1019.8
20260902003633 11 196 0.0 0.0 0.00 0.00 0.00 98 1020.0
20260902003624 11 196 0.0 0.0 0.00 0.00 0.00 99 1019.9
20260902003608 11 196 0.0 0.0 0.00 0.00 0.00 99 1020.0
20260902003552 11 196 0.0 0.0 0.00 0.00 0.00 99 1019.9
20260902003316 11 196 0.0 0.0 0.00 0.00 0.00 99 1019.9
20260902003306 11 196 0.0 0.0 0.00 0.00 0.00 99 1020.0
20260902003250 11 196 0.0 0.0 0.00 0.00 0.00 99 1019.9
20260902003234 11 196 0.0 0.0 0.00 0.00 0.00 99 1019.9
20260902003219 11 196 0.0 0.0 0.00 0.00 0.00 99 1019.9
20260902003151 11 196 0.0 0.0 0.00 0.00 0.00 99 1019.9
20260902003139 11 196 0.0 0.0 0.00 0.00 0.00 99 1019.9
20260902003123 11 196 0.0 0.0 0.00 0.00 0.00 99 1019.8
20260902003107 11 196 0.0 0.0 0.00 0.00 0.00 99 1019.9
20260902002820 11 196 0.0 0.0 0.00 0.00 0.00 99 1020.2
20260902002809 11 196 0.0 0.0 0.00 0.00 0.00 99 1020.1
20260902002754 11 196 0.0 0.0 0.00 0.00 0.00 99 1019.9
20260902002246 11 196 0.0 0.0 0.00 0.00 0.00 99 1020.0
20260902002234 11 196 0.0 0.0 0.00 0.00 0.00 99 1019.9
20260902002218 11 196 0.0 0.0 0.00 0.00 0.00 99 1019.6
20260902002202 11 196 0.0 0.0 0.00 0.00 0.00 99 1020.0
20260902002146 11 196 0.0 0.0 0.00 0.00 0.00 99 1019.9
20260902002119 11 196 0.0 0.0 0.00 0.00 0.00 99 1019.8
20260902001847 11 196 0.0 0.0 0.00 0.00 0.00 99 1019.6
20260902001831 11 196 0.0 0.0 0.00 0.00 0.00 99 1019.8
20260902001816 11 196 0.0 0.0 0.00 0.00 0.00 99 1020.1
20260902001748 11 196 0.0 0.0 0.00 0.00 0.00 98 1019.9
20260902001515 11 196 0.0 0.0 0.00 0.00 0.00 98 1019.7
20260902001238 11 196 0.0 0.0 0.00 0.00 0.00 98 1019.9
20260902001222 11 196 0.0 0.0 0.00 0.00 0.00 98 1019.8
20260902000736 11 196 0.0 0.0 0.00 0.00 0.00 98 1020.0
20260902000241 11 196 0.0 0.0 0.00 0.00 0.00 98 1020.0
20260902000010 12 196 0.0 0.0 0.00 0.00 0.00 98 1020.0
20260901235954 12 196 0.0 0.0 0.00 0.00 0.00 98 1020.1
20260901235938 11 196 0.0 0.0 0.00 0.00 0.00 98 1020.1
20260901235157 12 196 0.0 0.0 0.00 0.00 0.00 98 1020.0
20260901235057 12 196 0.0 0.0 0.00 0.00 0.00 98 1020.0
20260901234958 12 196 0.0 0.0 0.00 0.00 0.00 98 1020.0
20260901234858 12 196 0.0 0.0 0.00 0.00 0.00 98 1019.9
20260901234741 12 196 0.0 0.0 0.00 0.00 0.00 98 1020.0
20260901234657 12 196 0.0 0.0 0.00 0.00 0.00 98 1019.9
20260901234557 12 196 0.0 0.0 0.00 0.00 0.00 98 1019.9
20260901234533 12 196 0.0 0.0 0.00 0.00 0.00 98 1019.8
20260901234517 12 196 0.0 0.0 0.00 0.00 0.00 98 1020.1
20260901234241 12 196 0.0 0.0 0.00 0.00 0.00 98 1019.8
20260901234157 12 196 0.0 0.0 0.00 0.00 0.00 98 1020.0
20260901234057 12 196 0.0 0.0 0.00 0.00 0.00 98 1019.8
20260901233957 12 196 0.0 0.0 0.00 0.00 0.00 98 1019.9
20260901233857 12 196 0.0 0.0 0.00 0.00 0.00 98 1019.8
20260901233821 12 196 0.0 0.0 0.00 0.00 0.00 98 1019.8
20260901233808 12 196 0.0 0.0 0.00 0.00 0.00 98 1019.8
20260901233751 12 196 0.0 0.0 0.00 0.00 0.00 98 1019.7
20260901233736 12 196 0.0 0.0 0.00 0.00 0.00 98 1019.8
20260901233447 12 196 0.0 0.0 0.00 0.00 0.00 98 1019.7
20260901233436 12 196 0.0 0.0 0.00 0.00 0.00 98 1019.9
20260901232858 12 196 0.0 0.0 0.00 0.00 0.00 98 1019.7
20260901232845 12 196 0.0 0.0 0.00 0.00 0.00 98 1019.8
20260901232823 12 196 0.0 0.0 0.00 0.00 0.00 98 1019.8
20260901232811 12 196 0.0 0.0 0.00 0.00 0.00 98 1019.9
20260901232755 12 195 0.0 0.0 0.00 0.00 0.00 98 1019.6
20260901232531 12 195 0.0 0.0 0.00 0.00 0.00 98 1019.9
20260901232515 12 196 0.0 0.0 0.00 0.00 0.00 98 1019.9
20260901232447 12 196 0.0 0.0 0.00 0.00 0.00 98 1020.0
20260901232437 12 196 0.0 0.0 0.00 0.00 0.00 98 1019.9
20260901232201 12 196 0.0 0.0 0.00 0.00 0.00 98 1019.8
20260901232145 12 196 0.0 0.0 0.00 0.00 0.00 98 1019.8
20260901232129 12 196 0.0 0.0 0.00 0.00 0.00 98 1019.8
20260901231557 12 196 0.0 0.0 0.00 0.00 0.00 98 1020.0
20260901231536 12 196 0.0 0.0 0.00 0.00 0.00 98 1019.7
20260901231528 12 196 0.0 0.0 0.00 0.00 0.00 98 1019.8
20260901231513 12 196 0.0 0.0 0.00 0.00 0.00 98 1019.6
20260901231457 12 196 0.0 0.0 0.00 0.00 0.00 98 1019.7
20260901231157 12 196 0.0 0.0 0.00 0.00 0.00 98 1019.8
20260901231057 12 196 0.0 0.0 0.00 0.00 0.00 98 1020.1
20260901230957 12 196 0.0 0.0 0.00 0.00 0.00 98 1020.0
20260901230858 12 196 0.0 0.0 0.00 0.00 0.00 98 1019.9
20260901230742 12 196 0.0 0.0 0.00 0.00 0.00 98 1019.8
20260901230656 12 196 0.0 0.0 0.00 0.00 0.00 98 1020.0
20260901230626 12 196 0.0 0.0 0.00 0.00 0.00 98 1019.7
20260901230619 12 196 0.0 0.0 0.00 0.00 0.00 98 1020.0
20260901230603 12 196 0.0 0.0 0.00 0.00 0.00 98 1019.8
20260901230548 12 196 0.0 0.0 0.00 0.00 0.00 98 1019.9
20260901230520 12 196 0.0 0.0 0.00 0.00 0.00 98 1019.9
20260901230510 12 196 0.0 0.0 0.00 0.00 0.00 98 1019.9
20260901230235 12 196 0.0 0.0 0.00 0.00 0.00 98 1019.8
20260901225958 12 196 0.0 0.0 0.00 0.00 0.00 98 1019.7
20260901225657 12 196 0.0 0.0 0.00 0.00 0.00 98 1019.9
20260901225558 12 196 0.0 0.0 0.00 0.00 0.00 98 1019.9
20260901225458 12 196 0.0 0.0 0.00 0.00 0.00 98 1019.7
20260901225357 12 196 0.0 0.0 0.00 0.00 0.00 98 1019.9
20260901225242 12 196 0.0 0.0 0.00 0.00 0.00 98 1020.0
20260901225157 12 196 0.0 0.0 0.00 0.00 0.00 98 1019.9
20260901225058 12 196 0.0 0.0 0.00 0.00 0.00 98 1019.9
20260901224956 12 196 0.0 0.0 0.00 0.00 0.00 98 1020.0
20260901224941 12 196 0.0 0.0 0.00 0.00 0.00 98 1019.9
20260901224914 12 196 0.0 0.0 0.00 0.00 0.00 98 1019.8
20260901224557 12 196 0.0 0.0 0.00 0.00 0.00 98 1019.8
20260901224458 12 196 0.0 0.0 0.00 0.00 0.00 98 1019.9
20260901224357 12 196 0.0 0.0 0.00 0.00 0.00 98 1019.8
20260901224244 12 196 0.0 0.0 0.00 0.00 0.00 98 1020.1
20260901224234 12 196 0.0 0.0 0.00 0.00 0.00 98 1019.6
20260901224217 12 196 0.0 0.0 0.00 0.00 0.00 98 1020.0
20260901223942 12 196 0.0 0.0 0.00 0.00 0.00 98 1019.9
20260901223914 12 196 0.0 0.0 0.00 0.00 0.00 97 1019.8
20260901223557 12 196 0.0 0.0 0.00 0.00 0.00 97 1020.0
20260901223458 12 196 0.0 0.0 0.00 0.00 0.00 97 1019.8
20260901223357 12 196 0.0 0.0 0.00 0.00 0.00 97 1019.9
20260901223241 12 196 0.0 0.0 0.00 0.00 0.00 97 1019.8
20260901223157 12 196 0.0 0.0 0.00 0.00 0.00 97 1019.9
20260901223057 12 196 0.0 0.0 0.00 0.00 0.00 97 1019.9
20260901222957 12 196 0.0 0.0 0.00 0.00 0.00 97 1019.9
20260901222858 12 196 0.0 0.0 0.00 0.00 0.00 97 1019.9
20260901222742 12 196 0.0 0.0 0.00 0.00 0.00 97 1019.7
20260901222658 12 196 0.0 0.0 0.00 0.00 0.00 97 1020.1
20260901222557 12 196 0.0 0.0 0.00 0.00 0.00 97 1019.7
20260901222533 12 196 0.0 0.0 0.00 0.00 0.00 97 1020.0
20260901222517 12 196 0.0 0.0 0.00 0.00 0.00 97 1019.8
20260901222241 12 196 0.0 0.0 0.00 0.00 0.00 97 1019.8
20260901222158 12 196 0.0 0.0 0.00 0.00 0.00 97 1019.8
20260901222056 12 196 0.0 0.0 0.00 0.00 0.00 97 1019.8
20260901222017 12 196 0.0 0.0 0.00 0.00 0.00 97 1020.0
20260901221742 12 196 0.0 0.0 0.00 0.00 0.00 97 1019.7
20260901221657 12 196 0.0 0.0 0.00 0.00 0.00 97 1019.8
20260901221557 12 196 0.0 0.0 0.00 0.00 0.00 97 1019.9
20260901221509 12 196 0.0 0.0 0.00 0.00 0.00 97 1019.8
20260901221453 12 196 0.0 0.0 0.00 0.00 0.00 97 1019.9
20260901221426 12 196 0.0 0.0 0.00 0.00 0.00 97 1019.8
20260901221058 12 196 0.0 0.0 0.00 0.00 0.00 97 1019.8
20260901220957 12 196 0.0 0.0 0.00 0.00 0.00 97 1019.8
20260901220942 12 196 0.0 0.0 0.00 0.00 0.00 97 1019.9
20260901220914 12 196 0.0 0.0 0.00 0.00 0.00 96 1019.8
20260901220557 12 196 0.0 0.0 0.00 0.00 0.00 96 1019.9
20260901220457 12 196 0.0 0.0 0.00 0.00 0.00 96 1020.0
20260901220357 12 196 0.0 0.0 0.00 0.00 0.00 96 1019.9
20260901220241 12 196 0.0 0.0 0.00 0.00 0.00 96 1019.7
20260901220158 12 196 0.0 0.0 0.00 0.00 0.00 96 1019.9
20260901220057 12 196 0.0 0.0 0.00 0.00 0.00 96 1019.6
20260901215957 12 196 0.0 0.0 0.00 0.00 0.00 96 1019.6
20260901215857 12 196 0.0 0.0 0.00 0.00 0.00 96 1019.6
20260901215741 12 196 0.0 0.0 0.00 0.00 0.00 96 1019.7
20260901215657 12 196 0.0 0.0 0.00 0.00 0.00 96 1019.7
20260901215558 12 196 0.0 0.0 0.00 0.00 0.00 96 1019.6
20260901215457 12 196 0.0 0.0 0.00 0.00 0.00 96 1019.7
20260901215357 12 196 0.0 0.0 0.00 0.00 0.00 96 1019.6
20260901215243 12 196 0.0 0.0 0.00 0.00 0.00 96 1019.9
20260901215223 12 196 0.0 0.0 0.00 0.00 0.00 96 1019.7
20260901215207 12 196 0.0 0.0 0.00 0.00 0.00 96 1019.8
20260901215151 12 196 0.0 0.0 0.00 0.00 0.00 96 1019.6
20260901215135 12 196 0.0 0.0 0.00 0.00 0.00 96 1019.9
20260901215108 12 196 0.0 0.0 0.00 0.00 0.00 96 1019.7
20260901214617 12 196 0.0 0.0 0.00 0.00 0.00 96 1019.8
20260901214243 12 196 0.0 0.0 0.00 0.00 0.00 96 1019.6
20260901214157 12 196 0.0 0.0 0.00 0.00 0.00 96 1019.7
20260901214058 12 196 0.0 0.0 0.00 0.00 0.00 96 1019.5
20260901213957 12 196 0.0 0.0 0.00 0.00 0.00 96 1019.8
20260901213857 13 196 0.0 0.0 0.00 0.00 0.00 95 1019.9
20260901213741 13 196 0.0 0.0 0.00 0.00 0.00 95 1019.9
20260901213657 13 196 0.0 0.0 0.00 0.00 0.00 95 1019.8
20260901213556 13 196 0.0 0.0 0.00 0.00 0.00 95 1019.9
20260901213458 13 196 0.0 0.0 0.00 0.00 0.00 95 1019.6
20260901213358 13 196 0.0 0.0 0.00 0.00 0.00 95 1019.7
20260901213313 13 196 0.0 0.0 0.00 0.00 0.00 95 1020.1
20260901213256 13 196 0.0 0.0 0.00 0.00 0.00 95 1019.6
20260901213245 13 196 0.0 0.0 0.00 0.00 0.00 95 1020.1
20260901213229 13 196 0.0 0.0 0.00 0.00 0.00 95 1019.8
20260901213214 13 196 0.0 0.0 0.00 0.00 0.00 95 1019.8
20260901213158 13 196 0.0 0.0 0.00 0.00 0.00 95 1019.8
20260901213142 13 196 0.0 0.0 0.00 0.00 0.00 95 1020.1
20260901212557 13 196 0.0 0.0 0.00 0.00 0.00 95 1019.8
20260901212457 13 196 0.0 0.0 0.00 0.00 0.00 95 1019.8
20260901212357 13 196 0.0 0.0 0.00 0.00 0.00 95 1019.7
20260901212241 13 196 0.0 0.0 0.00 0.00 0.00 95 1019.9
20260901212158 13 196 0.0 0.0 0.00 0.00 0.00 95 1019.8
20260901212057 13 196 0.0 0.0 0.00 0.00 0.00 95 1019.7
20260901211957 13 196 0.0 0.0 0.00 0.00 0.00 95 1019.8
20260901211856 13 196 0.0 0.0 0.00 0.00 0.00 95 1019.8
20260901211741 13 196 0.0 0.0 0.00 0.00 0.00 95 1019.8
20260901211657 13 196 0.0 0.0 0.00 0.00 0.00 95 1019.9
20260901211631 13 196 0.0 0.0 0.00 0.00 0.00 95 1019.9
20260901211616 13 196 0.0 0.0 0.00 0.00 0.00 95 1020.0
20260901211559 13 196 0.0 0.0 0.00 0.00 0.00 95 1019.8
20260901211532 13 196 0.0 0.0 0.00 0.00 0.00 95 1019.9
20260901210957 13 196 0.0 0.0 0.00 0.00 0.00 95 1019.9
20260901210941 13 196 0.0 0.0 0.00 0.00 0.00 95 1019.6
20260901210914 13 196 0.0 0.0 0.00 0.00 0.00 95 1019.9
20260901210559 13 196 0.0 0.0 0.00 0.00 0.00 95 1019.7
20260901210457 13 196 0.0 0.0 0.00 0.00 0.00 95 1020.0
20260901210358 13 196 0.0 0.0 0.00 0.00 0.00 95 1019.9
20260901210315 13 196 0.0 0.0 0.00 0.00 0.00 95 1020.0
20260901210305 13 196 0.0 0.0 0.00 0.00 0.00 95 1019.7
20260901210249 13 196 0.0 0.0 0.00 0.00 0.00 95 1019.7
20260901210234 13 196 0.0 0.0 0.00 0.00 0.00 95 1019.8
20260901205738 13 196 0.0 0.0 0.00 0.00 0.00 95 1020.0
20260901205653 13 197 0.0 0.0 0.00 0.00 0.00 95 1019.8
20260901205628 13 198 0.0 0.0 0.00 0.00 0.00 95 1019.9
20260901205613 13 198 0.0 0.0 0.00 0.00 0.00 95 1019.9
20260901205237 13 198 0.0 0.0 0.00 0.00 0.00 95 1019.9
20260901205153 13 198 0.0 0.0 0.00 0.00 0.00 95 1019.8
20260901205053 13 198 0.0 0.0 0.00 0.00 0.00 95 1019.9
20260901204953 13 198 0.0 0.0 0.00 0.00 0.00 95 1019.9
20260901204853 13 198 0.0 0.0 0.00 0.00 0.00 95 1019.7
20260901204737 13 198 0.0 0.0 0.00 0.00 0.00 95 1019.7
20260901204653 13 198 0.0 0.0 0.00 0.00 0.00 95 1019.8
20260901204553 13 198 0.0 0.0 0.00 0.00 0.00 95 1019.7
20260901204532 13 198 0.0 0.0 0.00 0.00 0.00 95 1019.7
20260901204524 13 198 0.0 0.0 0.00 0.00 0.00 95 1019.9
20260901204508 13 198 0.0 0.0 0.00 0.00 0.00 95 1019.9
20260901204453 13 198 0.0 0.0 0.00 0.00 0.00 95 1019.7
20260901204153 13 198 0.0 0.0 0.00 0.00 0.00 95 1019.8
20260901204054 13 198 0.0 0.0 0.00 0.00 0.00 95 1019.9
20260901203952 13 198 0.0 0.0 0.00 0.00 0.00 95 1019.8
20260901203854 13 198 0.0 0.0 0.00 0.00 0.00 95 1019.8
20260901203738 13 198 0.0 0.0 0.00 0.00 0.00 94 1019.9
20260901203655 13 198 0.0 0.0 0.00 0.00 0.00 94 1019.6
20260901203553 13 198 0.0 0.0 0.00 0.00 0.00 94 1020.0
20260901203452 13 198 0.0 0.0 0.00 0.00 0.00 94 1019.7
20260901203353 13 198 0.0 0.0 0.00 0.00 0.00 94 1019.7
20260901203237 13 198 0.0 0.0 0.00 0.00 0.00 94 1019.9
20260901203154 13 198 0.0 0.0 0.00 0.00 0.00 94 1019.8
20260901203053 13 198 0.0 0.0 0.00 0.00 0.00 94 1019.9
20260901202953 13 198 0.0 0.0 0.00 0.00 0.00 94 1019.8
20260901202854 13 198 0.0 0.0 0.00 0.00 0.00 94 1019.7
20260901202738 13 198 0.0 0.0 0.00 0.00 0.00 94 1019.7
20260901202653 13 198 0.0 0.0 0.00 0.00 0.00 94 1019.7
20260901202553 13 198 0.0 0.0 0.00 0.00 0.00 94 1019.7
20260901202453 13 198 0.0 0.0 0.00 0.00 0.00 94 1019.7
20260901202353 13 198 0.0 0.0 0.00 0.00 0.00 94 1019.7
20260901202324 13 198 0.0 0.0 0.00 0.00 0.00 94 1019.7
20260901202314 13 198 0.0 0.0 0.00 0.00 0.00 94 1019.9
20260901201954 13 198 0.0 0.0 0.00 0.00 0.00 94 1019.9
20260901201937 13 199 0.0 0.0 0.00 0.00 0.00 94 1019.9
20260901201910 13 199 0.0 0.0 0.00 0.00 0.00 94 1019.6
20260901201553 13 199 0.0 0.0 0.00 0.00 0.00 94 1019.9
20260901201454 13 199 0.0 0.0 0.00 0.00 0.00 94 1019.6
20260901201353 13 199 0.0 0.0 0.00 0.00 0.00 94 1019.8
20260901201237 13 199 0.0 0.0 0.00 0.00 0.00 94 1020.2
20260901201154 13 199 0.0 0.0 0.00 0.00 0.00 94 1019.7
20260901201054 13 199 0.0 0.0 0.00 0.00 0.00 94 1020.0
20260901200954 13 199 0.0 0.0 0.00 0.00 0.00 94 1019.8
20260901200853 13 198 0.0 0.0 0.00 0.00 0.00 94 1019.8
20260901200753 13 199 0.0 0.0 0.00 0.00 0.00 94 1019.8
20260901200725 13 198 0.0 0.0 0.00 0.00 0.00 94 1019.8
20260901200654 13 198 0.0 0.0 0.00 0.00 0.00 94 1019.7
20260901200629 13 198 0.0 0.0 0.00 0.00 0.00 94 1019.6
20260901200613 13 198 0.0 0.0 0.00 0.00 0.00 94 1019.8
20260901200328 13 199 0.0 0.0 0.00 0.00 0.00 93 1019.8
20260901200319 13 198 0.0 0.0 0.00 0.00 0.00 94 1019.8
20260901200306 13 199 0.0 0.0 0.00 0.00 0.00 94 1019.8
20260901200256 13 199 0.0 0.0 0.00 0.00 0.00 94 1019.6
20260901200241 13 199 0.0 0.0 0.00 0.00 0.00 94 1019.6
20260901200016 13 199 0.0 0.0 0.00 0.00 0.00 94 1019.7
20260901200001 13 199 0.0 0.0 0.00 0.00 0.00 93 1019.7
20260901195944 13 199 0.0 0.0 0.00 0.00 0.00 93 1019.8
20260901195654 13 199 0.0 0.0 0.00 0.00 0.00 93 1019.8
20260901195554 13 199 0.0 0.0 0.00 0.00 0.00 93 1019.7
20260901195453 13 199 0.0 0.0 0.00 0.00 0.00 93 1019.8
20260901195353 13 199 0.0 0.0 0.00 0.00 0.00 93 1019.8
20260901195253 13 199 0.0 0.0 0.00 0.00 0.00 93 1019.4
20260901195213 13 199 0.0 0.0 0.00 0.00 0.00 93 1019.4
20260901195154 13 199 0.0 0.0 0.00 0.00 0.00 93 1019.7
20260901195055 13 199 0.0 0.0 0.00 0.00 0.00 93 1019.7
20260901194953 13 199 0.0 0.0 0.00 0.00 0.00 93 1019.7
20260901194854 13 199 0.0 0.0 0.00 0.00 0.00 93 1019.9
20260901194754 13 199 0.0 0.0 0.00 0.00 0.00 93 1019.7
20260901194715 13 199 0.0 0.0 0.00 0.00 0.00 93 1019.7
20260901194653 14 198 0.0 0.0 0.00 0.00 0.00 93 1019.6
20260901194643 14 198 0.0 0.0 0.00 0.00 0.00 92 1019.6
20260901194634 14 198 0.0 0.0 0.00 0.00 0.00 93 1019.7
20260901194618 14 198 0.0 0.0 0.00 0.00 0.00 93 1019.5
20260901194602 14 198 0.0 0.0 0.00 0.00 0.00 93 1019.7
20260901194532 14 198 0.0 0.0 0.00 0.00 0.00 93 1019.7
20260901194510 14 198 0.0 0.0 0.00 0.00 0.00 93 1019.6
20260901194454 14 198 0.0 0.0 0.00 0.00 0.00 93 1019.7
20260901194218 14 198 0.0 0.0 0.00 0.00 0.00 93 1019.8
20260901194202 14 198 0.0 0.0 0.00 0.00 0.00 93 1019.6
20260901193713 14 198 0.0 0.0 0.00 0.00 0.00 92 1019.9
20260901193354 14 198 0.0 0.0 0.00 0.00 0.00 92 1019.5
20260901193236 14 198 0.0 0.0 0.00 0.00 0.00 92 1019.7
20260901193228 14 198 0.0 0.0 0.00 0.00 0.00 92 1019.8
20260901193213 14 198 0.0 0.0 0.00 0.00 0.00 92 1019.6
20260901192854 14 198 0.0 0.0 0.00 0.00 0.00 91 1019.8
20260901192754 14 198 0.0 0.0 0.00 0.00 0.00 91 1019.4
20260901192713 14 198 0.0 0.0 0.00 0.00 0.00 91 1019.4
20260901192653 14 198 0.0 0.0 0.00 0.00 0.00 91 1019.6
20260901192553 14 198 0.0 0.0 0.00 0.00 0.00 91 1019.6
20260901192453 14 198 0.0 0.0 0.00 0.00 0.00 91 1019.5
20260901192356 14 198 0.0 0.0 0.00 0.00 0.00 91 1019.6
20260901192341 14 198 0.0 0.0 0.00 0.00 0.00 91 1019.7
20260901192327 15 198 0.0 0.0 0.00 0.00 0.00 91 1019.7
20260901192319 15 198 0.0 0.0 0.00 0.00 0.00 91 1019.7
20260901191953 15 198 0.0 0.0 0.00 0.00 0.00 91 1019.7
20260901191853 15 198 0.0 0.0 0.00 0.00 0.00 91 1019.7
20260901191753 15 198 0.0 0.0 0.00 0.00 0.00 91 1019.6
20260901191737 15 198 0.0 0.0 0.00 0.00 0.00 90 1019.6
20260901191729 15 198 0.0 0.0 0.00 0.00 0.00 90 1019.6
20260901191713 15 198 0.0 0.0 0.00 0.00 0.00 90 1019.9
20260901191414 15 198 0.0 0.0 0.00 0.00 0.00 90 1019.8
20260901191253 15 198 0.0 0.0 0.00 0.00 0.00 90 1019.7
20260901191214 15 198 0.0 0.0 0.00 0.00 0.00 90 1019.7
20260901191153 15 198 0.0 0.0 0.00 0.00 0.00 90 1019.8
20260901191053 15 198 0.0 0.0 0.00 0.00 0.00 90 1019.7
20260901190954 15 198 0.0 0.0 0.00 0.00 0.00 90 1019.8
20260901190853 15 198 0.0 0.0 0.00 0.00 0.00 89 1019.7
20260901190754 15 198 0.0 0.0 0.00 0.00 0.00 89 1019.7
20260901190714 15 198 0.0 0.0 0.00 0.00 0.00 89 1019.7
20260901190654 15 198 0.0 0.0 0.00 0.00 0.00 89 1019.6
20260901190554 15 198 0.0 0.0 0.00 0.00 0.00 89 1019.7
20260901190455 15 198 0.0 0.0 0.00 0.00 0.00 89 1019.9
20260901190354 15 198 0.0 0.0 0.00 0.00 0.00 89 1019.8
20260901190238 15 198 0.0 0.0 0.00 0.00 0.00 89 1019.9
20260901190230 15 198 0.0 0.0 0.00 0.00 0.00 88 1019.7
20260901190215 15 197 0.0 0.0 0.00 0.00 0.00 88 1019.7
20260901185925 15 196 0.0 0.0 0.00 0.00 0.00 87 1019.5
20260901185918 16 195 0.0 0.0 0.00 0.00 0.00 85 1019.6
20260901185911 16 195 0.0 0.0 0.00 0.00 0.00 81 1019.4
20260901185905 15 197 0.0 0.0 0.00 0.00 0.00 88 1019.8
20260901185830 15 197 0.0 0.0 0.00 0.00 0.00 88 1019.5
20260901185822 15 197 0.0 0.0 0.00 0.00 0.00 88 1019.7
20260901185806 15 197 0.0 0.0 0.00 0.00 0.00 88 1019.6
20260901185751 15 196 0.0 0.0 0.00 0.00 0.00 88 1019.7
20260901185736 15 196 0.0 0.0 0.00 0.00 0.00 88 1019.7
20260901185246 15 196 0.0 0.0 0.00 0.00 0.00 87 1019.7
20260901185230 15 196 0.0 0.0 0.00 0.00 0.00 87 1019.7
20260901185215 15 196 0.0 0.0 0.00 0.00 0.00 87 1019.7
20260901184922 15 196 0.0 0.0 0.00 0.00 0.00 86 1019.8
20260901184914 15 196 0.0 0.0 0.00 0.00 0.00 86 1019.7
20260901184858 15 196 0.0 0.0 0.00 0.00 0.00 86 1019.6
20260901184842 15 196 0.0 0.0 0.00 0.00 0.00 86 1019.8
20260901184825 15 196 0.0 0.0 0.00 0.00 0.00 86 1019.5
20260901184810 15 196 0.0 0.0 0.00 0.00 0.00 86 1019.6
20260901184756 16 196 0.0 0.0 0.00 0.00 0.00 86 1019.6
20260901184748 16 196 0.0 0.0 0.00 0.00 0.00 86 1019.6
20260901184511 16 196 0.0 0.0 0.00 0.00 0.00 85 1019.8
20260901184454 16 196 0.0 0.0 0.00 0.00 0.00 85 1019.5
20260901184005 16 195 0.0 0.0 0.00 0.00 0.00 85 1019.7
20260901183728 16 208 0.0 0.0 0.00 0.00 0.00 85 1019.6
20260901183712 16 207 0.0 0.0 0.00 0.00 0.00 85 1019.7
20260901183641 16 199 0.0 0.0 0.00 0.00 0.00 84 1019.6
20260901183633 16 199 0.0 0.0 0.00 0.00 0.00 84 1019.7
20260901183617 16 199 0.0 0.0 0.00 0.00 0.00 84 1019.6
20260901183341 16 197 0.0 0.0 0.00 0.00 0.00 84 1019.7
20260901183326 16 197 0.0 0.0 0.00 0.00 0.00 83 1019.5
20260901183309 16 196 0.0 0.0 0.00 0.00 0.00 83 1019.5
20260901183302 16 196 0.0 0.0 0.00 0.00 0.00 83 1019.5
20260901182807 16 196 0.0 0.0 0.00 0.00 0.00 83 1019.6
20260901182737 16 196 0.0 0.0 0.00 0.00 0.00 83 1019.3
20260901182729 16 198 0.0 0.0 0.00 0.00 0.00 83 1019.6
20260901182712 16 198 0.0 0.0 0.00 0.00 0.00 82 1019.5
20260901182656 16 198 0.0 0.0 0.00 0.00 0.00 82 1019.4
20260901182641 16 195 0.0 0.0 0.00 0.00 0.00 82 1019.5
20260901182608 16 195 0.0 0.0 0.00 0.00 0.00 82 1019.6
20260901182340 16 195 0.0 0.0 0.00 0.00 0.00 82 1019.5
20260901181106 17 143 0.0 0.0 0.00 0.00 0.00 80 1019.1
20260901181100 16 195 0.0 0.0 0.00 0.00 0.00 81 1019.4
20260901181045 16 195 0.0 0.0 0.00 0.00 0.00 81 1019.5
20260901181029 17 122 0.0 0.0 0.00 0.00 0.00 81 1019.3
20260901181013 17 122 0.0 0.0 0.00 0.00 0.00 81 1019.4
20260901180956 17 143 0.0 0.0 0.00 0.00 0.00 80 1019.4
20260901180948 17 143 0.0 0.0 0.00 0.00 0.00 80 1019.2
20260901180450 17 143 0.0 0.0 0.00 0.00 0.00 80 1019.5
20260901180434 17 143 0.0 0.0 0.00 0.00 0.00 80 1019.1
20260901180153 17 143 0.0 0.0 0.00 0.00 0.00 80 1019.2
20260901180052 17 143 0.0 0.0 0.00 0.00 0.00 79 1019.4
20260901175955 17 143 0.0 0.0 0.00 0.00 0.00 79 1019.3
20260901175939 17 143 0.0 0.0 0.00 0.00 0.00 79 1019.2
20260901175906 17 143 0.0 0.0 0.00 0.00 0.00 79 1019.4
20260901175623 17 143 0.0 0.0 0.00 0.00 0.00 79 1019.3
20260901175453 17 143 0.0 0.0 0.00 0.00 0.00 79 1019.1
20260901175429 17 143 0.0 0.0 0.00 0.00 0.00 78 1019.3
20260901175412 17 122 0.0 0.0 0.00 0.00 0.00 78 1019.1
20260901175358 17 114 0.0 0.0 0.00 0.00 0.00 78 1019.1
20260901175350 17 162 0.0 0.0 0.00 0.00 0.00 78 1019.2
20260901175114 17 122 0.0 0.0 0.00 0.00 0.00 78 1019.1
20260901174753 17 122 0.0 0.0 0.00 0.00 0.00 78 1019.2
20260901174714 17 114 0.0 0.0 0.00 0.00 0.00 78 1019.2
20260901174653 17 122 0.0 0.0 0.00 0.00 0.00 78 1019.1
20260901174553 17 122 0.0 0.0 0.00 0.00 0.00 78 1019.1
20260901174516 18 122 0.0 0.0 0.00 0.00 0.00 76 1018.9
20260901174510 18 268 0.0 0.0 0.00 0.00 0.00 76 1019.1
20260901174504 17 122 0.0 0.0 0.00 0.00 0.00 77 1019.2
20260901174447 17 122 0.0 0.0 0.00 0.00 0.00 77 1019.0
20260901174418 17 122 0.0 0.0 0.00 0.00 0.00 77 1019.0
20260901174409 17 122 0.0 0.0 0.00 0.00 0.00 77 1019.2
20260901174354 17 122 0.0 0.0 0.00 0.00 0.00 77 1019.0
20260901174337 18 122 0.0 0.0 0.00 0.00 0.00 77 1019.1
20260901174320 18 122 0.0 0.0 0.00 0.00 0.00 76 1019.0
20260901174303 18 122 0.0 0.0 0.00 0.00 0.00 76 1018.9
20260901174034 18 122 0.0 0.0 0.00 0.00 0.00 76 1019.2
20260901173758 18 268 0.0 0.0 0.00 0.00 0.00 76 1019.0
20260901173743 18 268 0.0 0.0 0.00 0.00 0.00 76 1019.1
20260901173728 18 268 0.0 0.0 0.00 0.00 0.00 76 1019.1
20260901173240 18 114 0.0 0.0 0.00 0.00 0.00 76 1019.0
20260901173224 18 114 0.0 0.0 0.00 0.00 0.00 76 1019.3
20260901172727 18 122 0.0 0.0 0.00 0.00 0.00 75 1019.2
20260901172630 18 191 0.0 0.0 0.00 0.00 0.00 75 1019.3
20260901172529 18 197 0.0 0.0 0.00 0.00 0.00 75 1019.2
20260901172429 18 203 0.0 0.0 0.00 0.00 0.00 75 1019.3
20260901172330 18 192 0.0 0.0 0.00 0.00 0.00 75 1019.0
20260901172229 18 195 0.0 0.0 0.00 0.00 0.00 75 1019.0
20260901172213 18 195 0.0 0.0 0.00 0.00 0.00 74 1019.0
20260901172153 18 196 0.0 0.0 0.00 0.00 0.00 74 1018.9
20260901172137 18 196 0.0 0.0 0.00 0.00 0.00 74 1018.9
20260901171818 18 196 0.0 0.0 0.00 0.00 0.00 74 1019.2
20260901171754 18 196 0.0 0.0 0.00 0.00 0.00 74 1019.0
20260901171738 18 196 0.0 0.0 0.00 0.00 0.00 74 1019.0
20260901171418 19 196 0.0 0.0 0.00 0.00 0.00 73 1019.0
20260901171317 19 196 0.0 0.0 0.00 0.00 0.00 73 1019.0
20260901171217 19 196 0.0 0.0 0.00 0.00 0.00 73 1019.1
20260901171118 19 196 0.0 1.6 0.00 0.00 0.00 73 1019.0
20260901171022 19 195 0.0 1.6 0.00 0.00 0.00 72 1018.8
20260901171018 19 196 0.0 1.6 0.00 0.00 0.00 73 1018.9
20260901171002 19 203 0.0 1.6 0.00 0.00 0.00 73 1018.9
20260901170946 19 195 0.0 1.6 0.00 0.00 0.00 73 1019.1
20260901170926 19 195 0.0 1.6 0.00 0.00 0.00 72 1018.8
20260901170656 19 195 0.0 1.6 0.00 0.00 0.00 72 1018.9
20260901170639 19 195 0.0 1.6 0.00 0.00 0.00 72 1019.0
20260901170318 19 196 0.0 1.6 0.00 0.00 0.00 72 1018.9
20260901170217 19 200 0.0 1.6 0.00 0.00 0.00 72 1019.1
20260901170156 19 196 0.0 0.0 0.00 0.00 0.00 72 1018.8
20260901170140 19 196 0.0 0.0 0.00 0.00 0.00 72 1018.9
20260901170124 20 195 0.0 0.0 0.00 0.00 0.00 72 1018.9
20260901165839 20 192 0.0 0.0 0.00 0.00 0.00 72 1018.9
20260901165518 20 195 0.0 0.0 0.00 0.00 0.00 71 1018.8
20260901165418 20 196 0.0 0.0 0.00 0.00 0.00 72 1018.9
20260901165318 20 196 0.0 0.0 0.00 0.00 0.00 72 1018.9
20260901165254 20 196 0.0 0.0 0.00 0.00 0.00 71 1018.9
20260901165238 20 196 0.0 0.0 0.00 0.00 0.00 72 1019.1
20260901164919 20 198 0.0 0.0 0.00 0.00 0.00 72 1019.2
20260901164817 20 199 0.0 0.0 0.00 0.00 0.00 72 1018.8
20260901164717 20 198 0.0 0.0 0.00 0.00 0.00 71 1018.9
20260901164112 20 194 0.0 1.6 0.00 0.00 0.00 71 1018.9
20260901164012 20 191 0.0 1.6 0.00 0.00 0.00 71 1019.0
20260901163956 20 198 0.0 1.6 0.00 0.00 0.00 71 1019.0
20260901163940 20 199 0.0 1.6 0.00 0.00 0.00 71 1019.0
20260901163926 20 199 0.0 1.6 0.00 0.00 0.00 71 1018.7
20260901163612 20 198 0.0 1.6 0.00 0.00 0.00 71 1019.1
20260901163513 20 193 0.0 1.6 0.00 0.00 0.00 71 1018.9
20260901163412 20 192 0.0 1.6 0.00 0.00 0.00 71 1018.8
20260901163318 20 203 0.0 1.6 0.00 0.00 0.00 70 1019.2
20260901163312 20 195 0.0 1.6 0.00 0.00 0.00 71 1018.7
20260901163258 20 199 0.0 1.6 0.00 0.00 0.00 71 1018.7
20260901163250 20 197 0.0 1.6 0.00 0.00 0.00 71 1018.8
20260901163234 20 199 0.0 1.6 0.00 0.00 0.00 71 1018.8
20260901163217 20 198 0.0 1.6 0.00 0.00 0.00 70 1018.9
20260901163201 20 191 0.0 1.6 0.00 0.00 0.00 71 1018.9
20260901163145 20 191 0.0 1.6 0.00 0.00 0.00 70 1019.2
20260901162613 20 199 0.0 1.6 0.00 0.00 0.00 70 1018.8
20260901162512 20 201 0.0 1.6 0.00 0.00 0.00 70 1019.0
20260901162412 20 199 0.0 1.6 0.00 0.00 0.00 70 1019.0
20260901162311 20 195 0.0 1.6 0.00 0.00 0.00 70 1018.8
20260901162231 20 195 0.0 1.6 0.00 0.00 0.00 70 1018.8
20260901162212 20 195 0.0 1.6 0.00 0.00 0.00 70 1018.8
20260901162150 20 204 0.0 0.0 0.00 0.00 0.00 71 1019.0
20260901162141 20 194 0.0 1.6 0.00 0.00 0.00 70 1018.8
20260901162125 20 194 0.0 1.6 0.00 0.00 0.00 70 1018.9
20260901162110 20 191 0.0 1.6 0.00 0.00 0.00 71 1018.8
20260901162054 20 197 0.0 1.6 0.00 0.00 0.00 71 1019.0
20260901161825 20 201 0.0 0.0 0.00 0.00 0.00 71 1019.0
20260901161808 20 198 0.0 0.0 0.00 0.00 0.00 70 1018.7
20260901161532 20 191 0.0 1.6 0.00 0.00 0.00 70 1019.1
20260901161233 20 198 0.0 1.6 0.00 0.00 0.00 70 1018.8
20260901161211 20 199 0.0 1.6 0.00 0.00 0.00 70 1018.8
20260901161111 20 196 0.0 1.6 0.00 0.00 0.00 70 1019.0
20260901161011 20 194 0.0 1.6 0.00 0.00 0.00 70 1018.7
20260901160912 20 192 0.0 1.6 0.00 0.00 0.00 70 1019.0
20260901160849 20 198 0.0 1.6 0.00 0.00 0.00 69 1018.9
20260901160835 20 194 0.0 1.6 0.00 0.00 0.00 69 1018.9
20260901160825 20 193 0.0 1.6 0.00 0.00 0.00 69 1018.9
20260901160809 20 196 0.0 1.6 0.00 0.00 0.00 69 1018.8
20260901160754 20 193 0.0 1.6 0.00 0.00 0.00 69 1019.0
20260901160303 20 203 0.0 1.6 0.00 0.00 0.00 69 1019.0
20260901160257 20 189 0.0 3.2 0.00 0.00 0.00 70 1018.9
20260901160249 20 190 0.0 1.6 0.00 0.00 0.00 69 1018.8
20260901160242 20 198 0.0 1.6 0.00 0.00 0.00 69 1019.0
20260901160226 20 197 0.0 1.6 0.00 0.00 0.00 69 1019.0
20260901160210 20 200 0.0 1.6 0.00 0.00 0.00 69 1018.8
20260901160154 20 194 0.0 3.2 0.00 0.00 0.00 69 1018.8
20260901160138 20 190 0.0 3.2 0.00 0.00 0.00 70 1018.9
20260901155909 20 157 0.0 3.2 0.00 0.00 0.00 70 1018.9
20260901155649 20 193 0.0 3.2 0.00 0.00 0.00 69 1018.7
20260901155641 20 195 0.0 3.2 0.00 0.00 0.00 69 1018.7
20260901155625 20 198 0.0 3.2 0.00 0.00 0.00 70 1018.7
20260901155609 20 195 0.0 3.2 0.00 0.00 0.00 69 1018.8
20260901155553 20 189 0.0 3.2 0.00 0.00 0.00 69 1018.9
20260901155537 20 120 0.0 3.2 0.00 0.00 0.00 69 1018.9
20260901155309 20 194 0.0 3.2 0.00 0.00 0.00 69 1018.8
20260901155254 20 140 0.0 3.2 0.00 0.00 0.00 70 1019.0
20260901155018 20 41 1.6 3.2 0.00 0.00 0.00 69 1019.0
20260901154749 20 194 0.0 1.6 0.00 0.00 0.00 69 1018.9
20260901154733 20 201 1.6 3.2 0.00 0.00 0.00 69 1018.9
20260901154717 20 190 0.0 3.2 0.00 0.00 0.00 69 1019.0
20260901154659 20 178 0.0 3.2 0.00 0.00 0.00 69 1019.0
20260901154644 20 201 0.0 3.2 0.00 0.00 0.00 69 1018.7
20260901154111 20 191 0.0 3.2 0.00 0.00 0.00 69 1018.8
20260901154011 20 188 0.0 3.2 0.00 0.00 0.00 69 1019.1
20260901153958 20 194 0.0 3.2 0.00 0.00 0.00 69 1018.7
20260901153953 20 192 0.0 3.2 0.00 0.00 0.00 69 1018.9
20260901153944 20 187 0.0 3.2 0.00 0.00 0.00 69 1019.0
20260901153929 20 201 0.0 3.2 0.00 0.00 0.00 69 1018.9
20260901153914 20 193 0.0 3.2 0.00 0.00 0.00 69 1018.9
20260901153904 20 207 1.6 3.2 0.00 0.00 0.00 69 1018.9
20260901153640 20 173 1.6 3.2 0.00 0.00 0.00 68 1019.0
20260901153624 20 64 0.0 1.6 0.00 0.00 0.00 68 1018.8
20260901153608 20 187 0.0 3.2 0.00 0.00 0.00 69 1019.0
20260901153553 20 192 0.0 3.2 0.00 0.00 0.00 68 1018.9
20260901153325 20 194 0.0 3.2 0.00 0.00 0.00 69 1018.9
20260901153308 20 190 0.0 3.2 0.00 0.00 0.00 68 1018.9
20260901153252 20 179 0.0 3.2 0.00 0.00 0.00 69 1018.9
20260901153236 20 179 0.0 3.2 0.00 0.00 0.00 69 1018.8
20260901153220 20 192 0.0 3.2 0.00 0.00 0.00 69 1018.7
20260901152730 20 194 0.0 3.2 0.00 0.00 0.00 69 1018.7
20260901152454 21 187 0.0 3.2 0.00 0.00 0.00 69 1018.7
20260901152437 21 196 0.0 3.2 0.00 0.00 0.00 69 1018.8
20260901152422 21 211 0.0 3.2 0.00 0.00 0.00 69 1018.8
20260901152111 21 192 0.0 3.2 0.00 0.00 0.00 69 1018.8
20260901152010 21 193 0.0 3.2 0.00 0.00 0.00 69 1018.8
20260901151934 21 209 0.0 3.2 0.00 0.00 0.00 68 1018.9
20260901151927 21 193 0.0 3.2 0.00 0.00 0.00 68 1018.7
20260901151910 21 195 0.0 3.2 0.00 0.00 0.00 68 1018.7
20260901151856 21 195 0.0 3.2 0.00 0.00 0.00 68 1018.7
20260901151846 21 197 0.0 3.2 0.00 0.00 0.00 68 1018.9
20260901151830 21 203 0.0 3.2 0.00 0.00 0.00 68 1018.8
20260901151814 21 196 0.0 3.2 0.00 0.00 0.00 68 1018.8
20260901151758 21 177 0.0 3.2 0.00 0.00 0.00 68 1018.7
20260901151743 21 193 0.0 3.2 0.00 0.00 0.00 68 1018.9
20260901151515 21 196 0.0 3.2 0.00 0.00 0.00 68 1018.8
20260901151459 21 195 0.0 3.2 0.00 0.00 0.00 68 1018.8
20260901151002 21 203 0.0 3.2 0.00 0.00 0.00 69 1018.9
20260901150949 21 183 0.0 3.2 0.00 0.00 0.00 68 1018.9
20260901150937 21 191 0.0 3.2 0.00 0.00 0.00 69 1018.9
20260901150921 21 194 0.0 1.6 0.00 0.00 0.00 69 1018.7
20260901150905 21 180 0.0 1.6 0.00 0.00 0.00 69 1018.7
20260901150411 21 192 0.0 3.2 0.00 0.00 0.00 69 1018.5
20260901150057 21 175 0.0 4.8 0.00 0.00 0.00 69 1018.5
20260901150044 21 190 0.0 4.8 0.00 0.00 0.00 69 1018.8
20260901150035 21 191 0.0 4.8 0.00 0.00 0.00 69 1018.7
20260901150019 21 202 0.0 4.8 0.00 0.00 0.00 69 1018.5
20260901145745 21 201 0.0 4.8 0.00 0.00 0.00 69 1018.9
20260901145734 21 193 0.0 4.8 0.00 0.00 0.00 68 1018.7
20260901145718 21 189 0.0 4.8 0.00 0.00 0.00 68 1018.8
20260901145703 21 194 0.0 4.8 0.00 0.00 0.00 68 1018.9
20260901145645 21 111 1.6 4.8 0.00 0.00 0.00 68 1018.7
20260901145629 21 195 0.0 4.8 0.00 0.00 0.00 69 1018.8
20260901145057 21 187 0.0 3.2 0.00 0.00 0.00 68 1018.7
20260901144958 21 190 0.0 3.2 0.00 0.00 0.00 69 1018.7
20260901144859 21 195 0.0 3.2 0.00 0.00 0.00 68 1018.7
20260901144757 21 191 0.0 3.2 0.00 0.00 0.00 69 1018.5
20260901144730 21 193 0.0 3.2 0.00 0.00 0.00 69 1018.5
20260901144656 21 202 0.0 3.2 0.00 0.00 0.00 68 1018.2
20260901144558 21 188 0.0 3.2 0.00 0.00 0.00 69 1018.5
20260901144535 21 196 0.0 3.2 0.00 0.00 0.00 69 1018.8
20260901144519 21 195 0.0 3.2 0.00 0.00 0.00 69 1018.7
20260901144230 21 193 0.0 3.2 0.00 0.00 0.00 69 1018.8
20260901144157 21 187 0.0 6.4 0.00 0.00 0.00 69 1018.7
20260901144133 21 185 0.0 6.4 0.00 0.00 0.00 69 1018.5
20260901144117 21 205 1.6 6.4 0.00 0.00 0.00 69 1018.3
20260901144102 21 170 0.0 6.4 0.00 0.00 0.00 69 1018.7
20260901143829 21 184 0.0 6.4 0.00 0.00 0.00 69 1018.4
20260901143818 21 173 0.0 6.4 0.00 0.00 0.00 69 1018.5
20260901143457 21 194 0.0 6.4 0.00 0.00 0.00 68 1018.4
20260901143423 21 160 1.6 6.4 0.00 0.00 0.00 68 1018.8
20260901143412 21 258 1.6 6.4 0.00 0.00 0.00 69 1018.7
20260901143359 21 314 1.6 6.4 0.00 0.00 0.00 69 1018.7
20260901143158 21 183 0.0 3.2 0.00 0.00 0.00 68 1018.5
20260901143057 21 194 0.0 3.2 0.00 0.00 0.00 68 1018.5
20260901142957 21 198 0.0 3.2 0.00 0.00 0.00 68 1018.5
20260901142858 21 194 0.0 3.2 0.00 0.00 0.00 68 1018.7
20260901142758 21 195 0.0 3.2 0.00 0.00 0.00 68 1018.4
20260901142730 21 207 0.0 3.2 0.00 0.00 0.00 68 1018.4
20260901142658 21 198 0.0 3.2 0.00 0.00 0.00 69 1018.8
20260901142558 21 117 0.0 3.2 0.00 0.00 0.00 68 1018.7
20260901142458 21 204 1.6 3.2 0.00 0.00 0.00 68 1018.5
20260901142357 21 200 0.0 3.2 0.00 0.00 0.00 68 1018.8
20260901142257 21 215 1.6 3.2 0.00 0.00 0.00 68 1018.5
20260901142229 21 208 1.6 3.2 0.00 0.00 0.00 68 1018.5
20260901142157 21 208 0.0 3.2 0.00 0.00 0.00 68 1018.4
20260901142130 21 196 0.0 3.2 0.00 0.00 0.00 68 1018.8
20260901142114 21 187 0.0 3.2 0.00 0.00 0.00 68 1018.4
20260901142059 21 194 0.0 3.2 0.00 0.00 0.00 68 1018.4
20260901141826 21 197 0.0 3.2 0.00 0.00 0.00 69 1018.7
20260901141814 21 199 0.0 3.2 0.00 0.00 0.00 69 1018.7
20260901141758 21 198 0.0 3.2 0.00 0.00 0.00 68 1018.3
20260901141533 21 207 0.0 3.2 0.00 0.00 0.00 68 1018.5
20260901141516 21 201 0.0 3.2 0.00 0.00 0.00 68 1018.4
20260901141500 21 161 0.0 3.2 0.00 0.00 0.00 69 1018.4
20260901141237 21 194 1.6 3.2 0.00 0.00 0.00 69 1018.4
20260901141227 21 186 0.0 4.8 0.00 0.00 0.00 69 1018.4
20260901141211 21 203 0.0 4.8 0.00 0.00 0.00 68 1018.5
20260901141156 21 194 0.0 4.8 0.00 0.00 0.00 68 1018.3
20260901141140 21 195 0.0 4.8 0.00 0.00 0.00 68 1018.8
20260901141124 21 188 0.0 4.8 0.00 0.00 0.00 68 1018.5
20260901141111 21 135 0.0 4.8 0.00 0.00 0.00 67 1018.5
20260901140838 21 205 0.0 4.8 0.00 0.00 0.00 67 1018.5
20260901140601 21 199 0.0 4.8 0.00 0.00 0.00 67 1018.5
20260901140545 21 190 0.0 4.8 0.00 0.00 0.00 66 1018.5
20260901140319 21 194 0.0 3.2 0.00 0.00 0.00 67 1018.4
20260901140038 21 196 0.0 3.2 0.00 0.00 0.00 67 1018.8
20260901140019 21 205 1.6 3.2 0.00 0.00 0.00 66 1018.7
20260901135729 21 200 0.0 3.2 0.00 0.00 0.00 66 1018.5
20260901135658 21 235 1.6 3.2 0.00 0.00 0.00 67 1018.5
20260901135557 21 183 0.0 3.2 0.00 0.00 0.00 66 1018.5
20260901135458 21 191 0.0 3.2 0.00 0.00 0.00 66 1018.4
20260901135357 21 210 1.6 6.4 0.00 0.00 0.00 65 1018.7
20260901135257 21 193 0.0 6.4 0.00 0.00 0.00 66 1018.8
20260901135229 21 189 0.0 6.4 0.00 0.00 0.00 66 1018.8
20260901135156 22 193 0.0 6.4 0.00 0.00 0.00 66 1018.7
20260901135146 22 191 1.6 4.8 0.00 0.00 0.00 65 1018.7
20260901135137 22 198 0.0 6.4 0.00 0.00 0.00 65 1018.4
20260901135121 22 194 0.0 6.4 0.00 0.00 0.00 65 1018.7
20260901134841 22 189 0.0 6.4 0.00 0.00 0.00 65 1018.7
20260901134827 22 207 0.0 6.4 0.00 0.00 0.00 65 1018.7
20260901134816 22 198 0.0 6.4 0.00 0.00 0.00 64 1018.3
20260901134759 22 180 0.0 6.4 0.00 0.00 0.00 64 1018.9
20260901134743 22 177 0.0 3.2 0.00 0.00 0.00 64 1018.5
20260901134249 22 188 1.6 3.2 0.00 0.00 0.00 64 1018.3
20260901134240 22 184 0.0 3.2 0.00 0.00 0.00 64 1018.8
20260901134223 22 199 0.0 3.2 0.00 0.00 0.00 64 1018.3
20260901134209 22 200 0.0 3.2 0.00 0.00 0.00 64 1018.5
20260901134153 22 139 1.6 3.2 0.00 0.00 0.00 64 1018.5
20260901134137 22 200 1.6 3.2 0.00 0.00 0.00 63 1018.7
20260901134124 22 201 1.6 3.2 0.00 0.00 0.00 63 1018.7
20260901134113 22 219 1.6 4.8 0.00 0.00 0.00 63 1018.3
20260901134057 22 179 0.0 4.8 0.00 0.00 0.00 63 1018.5
20260901134041 22 187 0.0 4.8 0.00 0.00 0.00 63 1018.7
20260901133806 22 195 0.0 4.8 0.00 0.00 0.00 64 1018.5
20260901133753 22 152 1.6 4.8 0.00 0.00 0.00 64 1018.5
20260901133300 22 205 0.0 4.8 0.00 0.00 0.00 64 1018.5
20260901133244 22 201 0.0 4.8 0.00 0.00 0.00 65 1018.5
20260901133011 22 211 1.6 3.2 0.00 0.00 0.00 64 1018.7
20260901133000 22 202 0.0 3.2 0.00 0.00 0.00 64 1018.5
20260901132945 22 200 0.0 4.8 0.00 0.00 0.00 64 1018.7
20260901132929 22 199 0.0 4.8 0.00 0.00 0.00 64 1018.5
20260901132157 22 198 0.0 4.8 0.00 0.00 0.00 64 1018.4
20260901132057 22 83 3.2 4.8 0.00 0.00 0.00 63 1018.7
20260901131957 22 198 0.0 4.8 0.00 0.00 0.00 63 1018.7
20260901131941 22 197 1.6 4.8 0.00 0.00 0.00 63 1018.7
20260901131925 22 190 0.0 4.8 0.00 0.00 0.00 64 1018.5
20260901131912 22 167 1.6 4.8 0.00 0.00 0.00 64 1018.5
20260901131558 22 146 1.6 3.2 0.00 0.00 0.00 63 1018.7
20260901131457 22 218 1.6 3.2 0.00 0.00 0.00 63 1018.5
20260901131357 22 192 0.0 3.2 0.00 0.00 0.00 63 1018.7
20260901131257 21 198 0.0 3.2 0.00 0.00 0.00 64 1018.5
20260901131230 21 205 0.0 3.2 0.00 0.00 0.00 64 1018.5
20260901131157 21 193 0.0 3.2 0.00 0.00 0.00 65 1019.0
20260901131057 22 203 0.0 3.2 0.00 0.00 0.00 65 1018.8
20260901130957 22 195 1.6 3.2 0.00 0.00 0.00 65 1018.8
20260901130930 22 218 0.0 3.2 0.00 0.00 0.00 65 1018.7
20260901130914 22 182 0.0 3.2 0.00 0.00 0.00 65 1018.3
20260901130903 21 182 0.0 3.2 0.00 0.00 0.00 66 1018.3
20260901130545 21 182 0.0 6.4 0.00 0.00 0.00 66 1018.9
20260901130446 21 192 0.0 6.4 0.00 0.00 0.00 65 1018.8
20260901130346 22 202 0.0 6.4 0.00 0.00 0.00 65 1018.7
20260901130244 22 199 0.0 6.4 0.00 0.00 0.00 65 1018.7
20260901130145 22 202 0.0 6.4 0.00 0.00 0.00 64 1018.9
20260901130121 22 191 0.0 6.4 0.00 0.00 0.00 64 1018.8
20260901130105 22 196 0.0 6.4 0.00 0.00 0.00 64 1018.5
20260901125745 22 130 0.0 6.4 0.00 0.00 0.00 65 1018.9
20260901125730 22 196 0.0 6.4 0.00 0.00 0.00 65 1018.9
20260901125645 22 202 0.0 6.4 0.00 0.00 0.00 65 1018.8
20260901125544 21 197 0.0 3.2 0.00 0.00 0.00 67 1018.5
20260901125518 21 194 0.0 3.2 0.00 0.00 0.00 67 1018.5
20260901125502 21 214 1.6 3.2 0.00 0.00 0.00 67 1018.4
20260901125447 21 281 0.0 3.2 0.00 0.00 0.00 67 1018.7
20260901125435 21 94 1.6 3.2 0.00 0.00 0.00 67 1018.7
20260901125425 21 201 0.0 3.2 0.00 0.00 0.00 66 1018.7
20260901124847 21 192 0.0 3.2 0.00 0.00 0.00 67 1018.7
20260901124756 21 184 0.0 3.2 0.00 0.00 0.00 67 1018.8
20260901124729 21 168 0.0 3.2 0.00 0.00 0.00 67 1018.8
20260901124646 21 195 0.0 3.2 0.00 0.00 0.00 67 1018.7
20260901124557 21 188 0.0 3.2 0.00 0.00 0.00 67 1018.7
20260901124445 21 129 1.6 3.2 0.00 0.00 0.00 67 1018.8
20260901124345 21 161 0.0 3.2 0.00 0.00 0.00 66 1018.8
20260901124328 21 81 0.0 3.2 0.00 0.00 0.00 66 1018.5
20260901124316 21 198 0.0 3.2 0.00 0.00 0.00 66 1018.5
20260901124306 21 188 0.0 3.2 0.00 0.00 0.00 66 1018.8
20260901123959 21 194 0.0 4.8 0.00 0.00 0.00 67 1018.8
20260901123943 21 227 0.0 4.8 0.00 0.00 0.00 66 1018.5
20260901123916 21 197 0.0 4.8 0.00 0.00 0.00 66 1018.8
20260901123545 21 199 0.0 4.8 0.00 0.00 0.00 66 1018.8
20260901123446 21 169 1.6 4.8 0.00 0.00 0.00 66 1018.9
20260901123427 21 195 0.0 4.8 0.00 0.00 0.00 66 1018.9
20260901123411 21 203 0.0 4.8 0.00 0.00 0.00 66 1018.5
20260901123359 21 198 0.0 4.8 0.00 0.00 0.00 66 1018.5
20260901123045 21 203 3.2 4.8 0.00 0.00 0.00 67 1018.7
20260901122946 21 195 0.0 4.8 0.00 0.00 0.00 66 1018.5
20260901122846 21 141 1.6 4.8 0.00 0.00 0.00 66 1018.5
20260901122745 21 201 1.6 4.8 0.00 0.00 0.00 65 1018.8
20260901122733 21 204 1.6 4.8 0.00 0.00 0.00 65 1018.8
20260901122721 21 191 1.6 4.8 0.00 0.00 0.00 66 1018.7
20260901122706 21 303 0.0 4.8 0.00 0.00 0.00 65 1018.7
20260901122345 21 196 0.0 4.8 0.00 0.00 0.00 65 1018.5
20260901122245 21 193 1.6 4.8 0.00 0.00 0.00 64 1018.9
20260901122232 21 127 1.6 4.8 0.00 0.00 0.00 64 1018.9
20260901122221 21 85 1.6 4.8 0.00 0.00 0.00 64 1018.7
20260901122206 22 186 1.6 4.8 0.00 0.00 0.00 64 1018.7
20260901121845 22 197 0.0 6.4 0.00 0.00 0.00 63 1018.5
20260901121830 22 227 0.0 6.4 0.00 0.00 0.00 63 1018.7
20260901121818 22 227 0.0 6.4 0.00 0.00 0.00 63 1018.7
20260901121806 22 194 1.6 6.4 0.00 0.00 0.00 64 1018.4
20260901121445 22 198 0.0 6.4 0.00 0.00 0.00 64 1018.7
20260901121347 22 199 0.0 6.4 0.00 0.00 0.00 64 1018.3
20260901121327 22 191 1.6 9.7 0.00 0.00 0.00 64 1018.4
20260901121315 22 200 0.0 9.7 0.00 0.00 0.00 64 1018.4
20260901121304 22 206 0.0 9.7 0.00 0.00 0.00 63 1018.7
20260901120946 22 206 0.0 9.7 0.00 0.00 0.00 64 1018.5
20260901120833 22 183 0.0 9.7 0.00 0.00 0.00 63 1018.7
20260901120735 22 199 0.0 9.7 0.00 0.00 0.00 63 1018.7
20260901120634 22 200 0.0 9.7 0.00 0.00 0.00 63 1018.8
20260901120533 22 199 0.0 9.7 0.00 0.00 0.00 64 1018.5
20260901120516 22 199 0.0 9.7 0.00 0.00 0.00 64 1018.8
20260901120501 22 168 0.0 3.2 0.00 0.00 0.00 63 1019.0
20260901120234 22 211 1.6 3.2 0.00 0.00 0.00 63 1018.7
20260901120133 22 195 0.0 3.2 0.00 0.00 0.00 64 1018.7
20260901120033 22 165 1.6 3.2 0.00 0.00 0.00 64 1018.7
20260901115933 22 192 0.0 3.2 0.00 0.00 0.00 64 1018.5
20260901115834 22 192 0.0 3.2 0.00 0.00 0.00 64 1018.5
20260901115733 22 206 1.6 3.2 0.00 0.00 0.00 65 1018.7
20260901115634 22 182 0.0 3.2 0.00 0.00 0.00 64 1018.4
20260901115533 22 195 0.0 3.2 0.00 0.00 0.00 64 1018.7
20260901115434 22 169 0.0 3.2 0.00 0.00 0.00 65 1018.5
20260901115333 22 196 0.0 6.4 0.00 0.00 0.00 66 1018.7
20260901115233 22 196 0.0 6.4 0.00 0.00 0.00 65 1018.8
20260901115133 21 206 0.0 6.4 0.00 0.00 0.00 66 1018.5
20260901115033 21 192 0.0 6.4 0.00 0.00 0.00 66 1018.7
20260901114934 21 196 0.0 6.4 0.00 0.00 0.00 65 1018.5
20260901114918 21 198 0.0 6.4 0.00 0.00 0.00 66 1018.7
20260901114854 21 195 0.0 6.4 0.00 0.00 0.00 66 1018.7
20260901114534 21 196 0.0 6.4 0.00 0.00 0.00 66 1018.9
20260901114433 21 184 0.0 6.4 0.00 0.00 0.00 66 1018.8
20260901114334 21 189 0.0 3.2 0.00 0.00 0.00 67 1018.7
20260901114233 21 212 0.0 3.2 0.00 0.00 0.00 66 1018.5
20260901114153 21 196 0.0 3.2 0.00 0.00 0.00 65 1018.7
20260901114035 21 59 3.2 3.2 0.00 0.00 0.00 66 1018.8
20260901114019 21 232 1.6 3.2 0.00 0.00 0.00 66 1018.8
20260901114003 22 184 0.0 4.8 0.00 0.00 0.00 66 1018.7
20260901113735 22 192 0.0 4.8 0.00 0.00 0.00 66 1018.8
20260901113633 22 206 1.6 4.8 0.00 0.00 0.00 65 1018.8
20260901113533 22 197 0.0 4.8 0.00 0.00 0.00 65 1018.7
20260901113433 21 212 1.6 4.8 0.00 0.00 0.00 66 1018.5
20260901113334 21 199 0.0 4.8 0.00 0.00 0.00 66 1018.7
20260901113233 21 228 0.0 4.8 0.00 0.00 0.00 66 1018.7
20260901113134 21 197 0.0 4.8 0.00 0.00 0.00 66 1018.7
20260901113033 21 175 0.0 4.8 0.00 0.00 0.00 66 1018.8
20260901113000 20 197 0.0 3.2 0.00 0.00 0.00 68 1018.4
20260901112956 20 210 0.0 1.6 0.00 0.00 0.00 68 1018.5
20260901112950 20 196 0.0 1.6 0.00 0.00 0.00 67 1018.4
20260901112946 21 192 0.0 3.2 0.00 0.00 0.00 67 1018.4
20260901112940 21 175 3.2 4.8 0.00 0.00 0.00 66 1018.5
20260901112925 21 184 1.6 4.8 0.00 0.00 0.00 66 1018.8
20260901112902 21 201 0.0 4.8 0.00 0.00 0.00 66 1018.5
20260901112844 21 176 1.6 4.8 0.00 0.00 0.00 66 1019.0
20260901112608 21 176 1.6 4.8 0.00 0.00 0.00 66 1018.7
20260901112552 21 199 0.0 4.8 0.00 0.00 0.00 66 1018.5
20260901112324 22 167 0.0 4.8 0.00 0.00 0.00 67 1018.4
20260901112310 22 84 3.2 4.8 0.00 0.00 0.00 65 1018.5
20260901112254 22 200 0.0 4.8 0.00 0.00 0.00 65 1018.2
20260901112238 22 194 1.6 4.8 0.00 0.00 0.00 65 1018.5
20260901112222 22 196 0.0 4.8 0.00 0.00 0.00 66 1018.7
20260901111955 22 104 1.6 4.8 0.00 0.00 0.00 67 1018.7
20260901111938 21 198 0.0 4.8 0.00 0.00 0.00 68 1018.7
20260901111702 21 185 1.6 4.8 0.00 0.00 0.00 68 1018.4
20260901111420 20 183 0.0 3.2 0.00 0.00 0.00 69 1018.7
20260901111405 21 198 0.0 3.2 0.00 0.00 0.00 68 1018.8
20260901111348 20 196 0.0 3.2 0.00 0.00 0.00 68 1018.8
20260901111333 20 186 1.6 3.2 0.00 0.00 0.00 68 1018.7
20260901111055 20 197 0.0 3.2 0.00 0.00 0.00 68 1018.4
20260901110827 20 198 0.0 3.2 0.00 0.00 0.00 68 1018.8
20260901110807 20 201 0.0 3.2 0.00 0.00 0.00 68 1018.7
20260901110751 20 203 0.0 3.2 0.00 0.00 0.00 68 1018.9
20260901110735 20 187 0.0 3.2 0.00 0.00 0.00 68 1018.8
20260901110713 20 198 0.0 3.2 0.00 0.00 0.00 68 1018.7
20260901110657 20 196 0.0 3.2 0.00 0.00 0.00 67 1018.5
20260901110642 20 228 1.6 3.2 0.00 0.00 0.00 67 1018.7
20260901110626 20 268 0.0 1.6 0.00 0.00 0.00 68 1018.8
20260901110611 20 199 0.0 1.6 0.00 0.00 0.00 68 1018.5
20260901110552 20 210 0.0 1.6 0.00 0.00 0.00 68 1018.5
20260901110326 21 164 0.0 1.6 0.00 0.00 0.00 68 1018.7
20260901110050 20 196 0.0 1.6 0.00 0.00 0.00 68 1018.5
20260901105812 20 196 0.0 1.6 0.00 0.00 0.00 67 1018.4
20260901105547 21 194 0.0 1.6 0.00 0.00 0.00 67 1018.5
20260901105531 21 195 0.0 1.6 0.00 0.00 0.00 67 1018.7
20260901105515 21 214 0.0 3.2 0.00 0.00 0.00 67 1018.4
20260901104805 21 116 0.0 3.2 0.00 0.00 0.00 66 1018.5
20260901104541 21 197 0.0 3.2 0.00 0.00 0.00 66 1018.4
20260901104527 21 199 0.0 3.2 0.00 0.00 0.00 66 1018.5
20260901104511 21 125 0.0 3.2 0.00 0.00 0.00 66 1018.7
20260901104239 21 194 1.6 3.2 0.00 0.00 0.00 65 1018.7
20260901104223 21 174 0.0 3.2 0.00 0.00 0.00 65 1018.7
20260901104208 22 198 0.0 3.2 0.00 0.00 0.00 65 1018.7
20260901104152 22 199 0.0 3.2 0.00 0.00 0.00 66 1018.5
20260901104137 22 183 0.0 3.2 0.00 0.00 0.00 64 1018.8
20260901103908 22 144 0.0 4.8 0.00 0.00 0.00 63 1018.5
20260901103851 22 198 0.0 4.8 0.00 0.00 0.00 62 1018.8
20260901103835 22 199 0.0 4.8 0.00 0.00 0.00 62 1018.8
20260901103819 22 200 0.0 4.8 0.00 0.00 0.00 64 1018.7
20260901103804 22 137 0.0 4.8 0.00 0.00 0.00 63 1018.5
20260901103314 22 201 0.0 4.8 0.00 0.00 0.00 64 1018.8
20260901103258 22 200 0.0 4.8 0.00 0.00 0.00 63 1018.2
20260901102718 22 208 0.0 9.7 0.00 0.00 0.00 63 1019.0
20260901102653 22 204 0.0 9.7 0.00 0.00 0.00 64 1018.8
20260901102637 22 178 0.0 9.7 0.00 0.00 0.00 65 1018.2
20260901102622 22 196 0.0 9.7 0.00 0.00 0.00 66 1018.4
20260901102605 22 206 1.6 9.7 0.00 0.00 0.00 64 1018.5
20260901102338 22 196 1.6 9.7 0.00 0.00 0.00 64 1018.4
20260901102018 21 206 0.0 9.7 0.00 0.00 0.00 64 1018.7
20260901102003 21 198 0.0 1.6 0.00 0.00 0.00 64 1018.3
20260901101947 21 188 0.0 1.6 0.00 0.00 0.00 65 1018.5
20260901101717 21 202 0.0 1.6 0.00 0.00 0.00 65 1018.4
20260901101617 21 195 0.0 1.6 0.00 0.00 0.00 64 1018.3
20260901101517 21 201 0.0 1.6 0.00 0.00 0.00 64 1018.3
20260901101417 21 205 0.0 1.6 0.00 0.00 0.00 64 1018.7
20260901101317 21 160 0.0 1.6 0.00 0.00 0.00 64 1018.7
20260901101217 21 196 0.0 1.6 0.00 0.00 0.00 65 1018.5
20260901101122 22 196 0.0 1.6 0.00 0.00 0.00 65 1018.3
20260901101019 21 197 0.0 1.6 0.00 0.00 0.00 65 1018.5
20260901101002 21 194 0.0 1.6 0.00 0.00 0.00 65 1018.3
20260901100946 21 186 1.6 1.6 0.00 0.00 0.00 65 1018.4
20260901100717 21 209 0.0 1.6 0.00 0.00 0.00 65 1018.3
20260901100617 21 200 0.0 3.2 0.00 0.00 0.00 66 1018.3
20260901100517 21 199 0.0 3.2 0.00 0.00 0.00 65 1018.5
20260901100417 21 134 0.0 3.2 0.00 0.00 0.00 67 1018.3
20260901100317 21 198 0.0 3.2 0.00 0.00 0.00 67 1018.4
20260901100218 21 176 0.0 3.2 0.00 0.00 0.00 67 1018.3
20260901100116 21 183 0.0 3.2 0.00 0.00 0.00 65 1018.5
20260901100018 21 205 0.0 3.2 0.00 0.00 0.00 66 1018.5
20260901095918 21 199 0.0 3.2 0.00 0.00 0.00 65 1018.4
20260901095817 22 199 0.0 4.8 0.00 0.00 0.00 64 1018.5
20260901095730 22 197 0.0 4.8 0.00 0.00 0.00 63 1018.5
20260901095617 22 168 0.0 4.8 0.00 0.00 0.00 63 1018.4
20260901095518 22 188 0.0 4.8 0.00 0.00 0.00 63 1018.5
20260901095418 22 198 0.0 9.7 0.00 0.00 0.00 63 1018.4
20260901095317 22 206 0.0 9.7 0.00 0.00 0.00 62 1018.5
20260901095217 23 190 0.0 11.3 0.00 0.00 0.00 62 1018.3
20260901095155 24 152 0.0 11.3 0.00 0.00 0.00 59 1018.3
20260901095151 23 207 0.0 9.7 0.00 0.00 0.00 60 1018.2
20260901095143 23 204 0.0 11.3 0.00 0.00 0.00 60 1018.1
20260901095128 23 190 0.0 11.3 0.00 0.00 0.00 60 1018.3
20260901095114 24 152 3.2 11.3 0.00 0.00 0.00 59 1018.3
20260901095058 24 202 0.0 11.3 0.00 0.00 0.00 60 1018.4
20260901095039 24 152 0.0 11.3 0.00 0.00 0.00 59 1018.3
20260901094812 24 196 0.0 11.3 0.00 0.00 0.00 60 1018.7
20260901094535 24 226 1.6 11.3 0.00 0.00 0.00 61 1018.3
20260901094520 24 230 0.0 11.3 0.00 0.00 0.00 60 1018.4
20260901094503 23 207 0.0 9.7 0.00 0.00 0.00 60 1018.2
20260901094237 23 217 1.6 9.7 0.00 0.00 0.00 59 1018.4
20260901093917 23 200 0.0 9.7 0.00 0.00 0.00 61 1018.1
20260901093818 23 101 0.0 4.8 0.00 0.00 0.00 59 1018.1
20260901093718 23 202 0.0 4.8 0.00 0.00 0.00 60 1018.7
20260901093617 23 138 3.2 4.8 0.00 0.00 0.00 60 1018.4
20260901093518 23 157 0.0 4.8 0.00 0.00 0.00 61 1018.3
20260901093419 23 207 0.0 4.8 0.00 0.00 0.00 62 1018.3
20260901093317 23 217 1.6 4.8 0.00 0.00 0.00 63 1018.5
20260901093217 23 212 1.6 4.8 0.00 0.00 0.00 61 1018.3
20260901093116 23 191 0.0 4.8 0.00 0.00 0.00 62 1018.4
20260901093055 23 178 0.0 4.8 0.00 0.00 0.00 62 1018.2
20260901093038 23 178 0.0 4.8 0.00 0.00 0.00 61 1018.3
20260901092751 23 201 0.0 4.8 0.00 0.00 0.00 58 1018.5
20260901092734 23 205 0.0 9.7 0.00 0.00 0.00 60 1018.4
20260901092719 23 194 0.0 9.7 0.00 0.00 0.00 59 1018.3
20260901092443 23 209 1.6 9.7 0.00 0.00 0.00 60 1018.2
20260901092217 23 107 0.0 9.7 0.00 0.00 0.00 61 1018.2
20260901092153 23 237 0.0 9.7 0.00 0.00 0.00 63 1018.2
20260901092138 23 239 1.6 9.7 0.00 0.00 0.00 61 1018.0
20260901091900 23 202 0.0 9.7 0.00 0.00 0.00 61 1018.4
20260901091836 23 153 3.2 9.7 0.00 0.00 0.00 61 1018.4
20260901091517 23 216 0.0 4.8 0.00 0.00 0.00 61 1018.3
20260901091417 23 198 0.0 3.2 0.00 0.00 0.00 61 1018.4
20260901091317 23 200 0.0 3.2 0.00 0.00 0.00 62 1018.3
20260901091217 23 200 0.0 3.2 0.00 0.00 0.00 63 1018.2
20260901091118 22 202 0.0 3.2 0.00 0.00 0.00 63 1018.2
20260901091021 21 135 0.0 3.2 0.00 0.00 0.00 65 1018.1
20260901091017 22 199 1.6 3.2 0.00 0.00 0.00 64 1018.1
20260901091001 22 199 0.0 3.2 0.00 0.00 0.00 64 1018.4
20260901090945 22 163 1.6 3.2 0.00 0.00 0.00 64 1018.1
20260901090926 21 135 0.0 3.2 0.00 0.00 0.00 65 1018.1
20260901090618 21 194 0.0 3.2 0.00 0.00 0.00 66 1018.2
20260901090517 21 188 0.0 3.2 0.00 0.00 0.00 68 1018.3
20260901090417 21 201 0.0 3.2 0.00 0.00 0.00 69 1018.2
20260901090317 21 116 1.6 3.2 0.00 0.00 0.00 69 1018.3
20260901090217 21 155 1.6 3.2 0.00 0.00 0.00 70 1018.2
20260901090152 21 202 0.0 3.2 0.00 0.00 0.00 68 1018.2
20260901090137 21 207 0.0 3.2 0.00 0.00 0.00 68 1018.3
20260901085818 21 201 0.0 3.2 0.00 0.00 0.00 68 1018.1
20260901085717 21 204 0.0 3.2 0.00 0.00 0.00 68 1018.4
20260901085653 21 79 0.0 3.2 0.00 0.00 0.00 69 1018.3
20260901085637 21 187 1.6 3.2 0.00 0.00 0.00 69 1018.4
20260901085317 21 230 0.0 3.2 0.00 0.00 0.00 70 1018.7
20260901085217 21 200 0.0 3.2 0.00 0.00 0.00 70 1018.3
20260901085117 20 73 0.0 3.2 0.00 0.00 0.00 70 1018.3
20260901085055 20 198 0.0 0.0 0.00 0.00 0.00 71 1018.4
20260901085038 20 197 0.0 0.0 0.00 0.00 0.00 72 1018.2
20260901084715 19 198 0.0 0.0 0.00 0.00 0.00 73 1018.5
20260901084216 19 193 0.0 4.8 0.00 0.00 0.00 72 1018.3
20260901084157 19 200 1.6 4.8 0.00 0.00 0.00 72 1018.3
20260901084116 21 196 0.0 9.7 0.00 0.00 0.00 70 1018.2
20260901084111 20 191 0.0 3.2 0.00 0.00 0.00 71 1018.2
20260901084105 22 208 0.0 9.7 0.00 0.00 0.00 65 1017.9
20260901084100 19 182 1.6 4.8 0.00 0.00 0.00 73 1018.2
20260901084044 19 165 0.0 4.8 0.00 0.00 0.00 72 1018.2
20260901084029 19 176 1.6 3.2 0.00 0.00 0.00 73 1018.2
20260901084013 19 194 0.0 3.2 0.00 0.00 0.00 72 1018.4
20260901083957 19 194 0.0 3.2 0.00 0.00 0.00 72 1018.4
20260901083949 19 194 0.0 3.2 0.00 0.00 0.00 72 1018.3
20260901083934 19 182 0.0 3.2 0.00 0.00 0.00 72 1018.3
20260901083918 19 160 0.0 3.2 0.00 0.00 0.00 72 1018.2
20260901083641 20 92 1.6 3.2 0.00 0.00 0.00 71 1018.2
20260901083627 20 206 0.0 1.6 0.00 0.00 0.00 71 1018.2
20260901083359 20 194 0.0 1.6 0.00 0.00 0.00 71 1018.1
20260901083342 20 202 0.0 1.6 0.00 0.00 0.00 71 1018.2
20260901083107 20 189 0.0 3.2 0.00 0.00 0.00 71 1018.2
20260901082838 20 194 0.0 3.2 0.00 0.00 0.00 71 1018.0
20260901082603 21 200 0.0 4.8 0.00 0.00 0.00 70 1018.1
20260901082547 21 194 0.0 4.8 0.00 0.00 0.00 69 1018.2
20260901082531 21 198 0.0 4.8 0.00 0.00 0.00 69 1018.1
20260901082517 21 199 0.0 4.8 0.00 0.00 0.00 70 1018.1
20260901082249 21 200 0.0 4.8 0.00 0.00 0.00 69 1018.0
20260901082012 21 202 0.0 4.8 0.00 0.00 0.00 68 1018.1
20260901081957 21 177 0.0 4.8 0.00 0.00 0.00 68 1018.2
20260901081732 21 35 1.6 4.8 0.00 0.00 0.00 68 1018.2
20260901081724 22 202 1.6 4.8 0.00 0.00 0.00 68 1018.1
20260901081709 22 198 0.0 3.2 0.00 0.00 0.00 67 1018.1
20260901081653 22 199 0.0 4.8 0.00 0.00 0.00 66 1017.8
20260901081638 22 191 0.0 4.8 0.00 0.00 0.00 66 1018.1
20260901081621 22 227 0.0 4.8 0.00 0.00 0.00 64 1017.9
20260901081354 22 218 0.0 9.7 0.00 0.00 0.00 65 1018.1
20260901081337 22 205 1.6 9.7 0.00 0.00 0.00 66 1018.0
20260901081321 22 198 0.0 9.7 0.00 0.00 0.00 67 1017.8
20260901081305 22 196 0.0 9.7 0.00 0.00 0.00 68 1017.9
20260901081249 21 199 0.0 9.7 0.00 0.00 0.00 69 1018.2
20260901080456 21 198 0.0 9.7 0.00 0.00 0.00 69 1017.8
20260901080356 21 193 0.0 9.7 0.00 0.00 0.00 69 1017.9
20260901080338 22 217 6.4 9.7 0.00 0.00 0.00 68 1017.7
20260901080323 22 191 1.6 6.4 0.00 0.00 0.00 68 1017.7
20260901080316 22 191 0.0 6.4 0.00 0.00 0.00 68 1017.8
20260901075956 22 239 3.2 6.4 0.00 0.00 0.00 69 1017.8
20260901075857 22 197 0.0 3.2 0.00 0.00 0.00 70 1017.9
20260901075756 22 200 0.0 3.2 0.00 0.00 0.00 69 1017.8
20260901075717 22 204 0.0 3.2 0.00 0.00 0.00 69 1017.8
20260901075657 22 196 0.0 3.2 0.00 0.00 0.00 69 1017.9
20260901075556 22 202 0.0 3.2 0.00 0.00 0.00 68 1017.8
20260901075457 22 199 0.0 3.2 0.00 0.00 0.00 69 1018.0
20260901075357 22 189 0.0 3.2 0.00 0.00 0.00 69 1017.9
20260901075256 22 201 0.0 3.2 0.00 0.00 0.00 70 1017.8
20260901075240 22 198 0.0 3.2 0.00 0.00 0.00 69 1017.8
20260901075232 22 206 1.6 3.2 0.00 0.00 0.00 69 1017.9
20260901075215 22 212 0.0 3.2 0.00 0.00 0.00 68 1017.8
20260901075200 22 202 0.0 3.2 0.00 0.00 0.00 69 1017.8
20260901074925 21 192 0.0 3.2 0.00 0.00 0.00 70 1018.0
20260901074908 21 197 0.0 3.2 0.00 0.00 0.00 70 1018.0
20260901074556 20 198 0.0 6.4 0.00 0.00 0.00 71 1017.9
20260901074458 20 188 0.0 6.4 0.00 0.00 0.00 72 1018.0
20260901074356 20 192 0.0 6.4 0.00 0.00 0.00 73 1017.9
20260901074256 20 188 0.0 6.4 0.00 0.00 0.00 73 1017.7
20260901074217 20 147 0.0 6.4 0.00 0.00 0.00 73 1017.7
20260901074156 20 191 0.0 6.4 0.00 0.00 0.00 73 1018.0
20260901074057 20 192 1.6 6.4 0.00 0.00 0.00 73 1017.9
20260901073957 21 77 1.6 6.4 0.00 0.00 0.00 71 1017.7
20260901073939 22 203 0.0 3.2 0.00 0.00 0.00 68 1017.5
20260901073933 22 212 0.0 4.8 0.00 0.00 0.00 68 1017.5
20260901073925 21 106 1.6 6.4 0.00 0.00 0.00 71 1017.9
20260901073910 21 195 0.0 6.4 0.00 0.00 0.00 70 1017.8
20260901073852 21 189 1.6 6.4 0.00 0.00 0.00 70 1017.8
20260901073845 21 187 0.0 3.2 0.00 0.00 0.00 69 1018.1
20260901073829 21 192 0.0 3.2 0.00 0.00 0.00 69 1018.0
20260901073814 21 161 1.6 3.2 0.00 0.00 0.00 70 1017.7
20260901073758 21 200 0.0 3.2 0.00 0.00 0.00 70 1017.7
20260901073523 21 212 0.0 3.2 0.00 0.00 0.00 69 1017.8
20260901073515 21 216 0.0 3.2 0.00 0.00 0.00 69 1017.7
20260901073459 21 199 0.0 1.6 0.00 0.00 0.00 70 1017.6
20260901073442 21 198 0.0 1.6 0.00 0.00 0.00 70 1017.6
20260901073426 22 164 0.0 1.6 0.00 0.00 0.00 69 1017.6
20260901073411 22 199 0.0 3.2 0.00 0.00 0.00 69 1017.5
20260901073140 22 198 0.0 3.2 0.00 0.00 0.00 69 1017.8
20260901073124 22 203 0.0 4.8 0.00 0.00 0.00 68 1017.6
20260901072627 22 191 0.0 4.8 0.00 0.00 0.00 68 1017.5
20260901072057 22 159 0.0 4.8 0.00 0.00 0.00 68 1017.5
20260901072029 22 191 0.0 4.8 0.00 0.00 0.00 69 1017.2
20260901072014 22 181 0.0 4.8 0.00 0.00 0.00 69 1017.5
20260901071958 22 245 0.0 4.8 0.00 0.00 0.00 68 1017.5
20260901071941 22 198 0.0 4.8 0.00 0.00 0.00 69 1017.5
20260901071712 22 222 0.0 3.2 0.00 0.00 0.00 70 1017.5
20260901071655 22 137 0.0 3.2 0.00 0.00 0.00 69 1017.5
20260901071418 22 188 0.0 3.2 0.00 0.00 0.00 69 1017.5
20260901071403 22 198 0.0 3.2 0.00 0.00 0.00 69 1017.5
20260901071355 22 198 0.0 3.2 0.00 0.00 0.00 69 1017.4
20260901071119 22 193 0.0 3.2 0.00 0.00 0.00 69 1017.4
20260901070842 21 197 0.0 3.2 0.00 0.00 0.00 70 1017.2
20260901070825 21 209 0.0 3.2 0.00 0.00 0.00 70 1017.2
20260901070817 21 189 0.0 3.2 0.00 0.00 0.00 70 1017.7
20260901070458 21 178 0.0 3.2 0.00 0.00 0.00 72 1017.2
20260901070356 21 47 0.0 3.2 0.00 0.00 0.00 72 1017.4
20260901070257 21 196 0.0 3.2 0.00 0.00 0.00 72 1017.5
20260901070217 21 197 0.0 3.2 0.00 0.00 0.00 73 1017.5
20260901070156 21 201 0.0 3.2 0.00 0.00 0.00 73 1017.4
20260901070134 21 147 1.6 3.2 0.00 0.00 0.00 72 1017.4
20260901070118 21 203 0.0 3.2 0.00 0.00 0.00 71 1017.3
20260901065757 21 189 1.6 4.8 0.00 0.00 0.00 71 1017.3
20260901065717 21 205 1.6 4.8 0.00 0.00 0.00 71 1017.3
20260901065656 21 193 1.6 4.8 0.00 0.00 0.00 72 1017.5
20260901065641 20 245 1.6 11.3 0.00 0.00 0.00 73 1017.4
20260901065632 21 201 0.0 11.3 0.00 0.00 0.00 72 1017.5
20260901065616 21 177 1.6 11.3 0.00 0.00 0.00 72 1017.2
20260901065559 20 201 0.0 11.3 0.00 0.00 0.00 72 1017.3
20260901065544 20 162 0.0 11.3 0.00 0.00 0.00 73 1017.4